Wetterdaten: Freitag, 15.10.2021
Datum Zeit Temp. Aussen Temp. o. S. Temp +5cm Feuchte Auss Luftdruck Regen Sonnenschein Regendauer Solar Windben Empfang
15.10.2021 00:00 12,8 C 12,2 C 10,6 C 83 % 1020,3 hPa 0,0 l/m 0 min 0 min 0 W/m 12,9 km/h (3 Bft) 95,74 %
15.10.2021 00:02 12,8 C 12,2 C 10,6 C 83 % 1020,3 hPa 0,0 l/m 0 min 0 min 0 W/m 19,3 km/h (3 Bft) 97,37 %
15.10.2021 00:04 12,8 C 12,2 C 10,6 C 83 % 1020,1 hPa 0,0 l/m 0 min 0 min 0 W/m 12,9 km/h (3 Bft) 95,74 %
15.10.2021 00:07 12,8 C 12,2 C 10,6 C 83 % 1020,1 hPa 0,0 l/m 0 min 0 min 0 W/m 16,1 km/h (3 Bft) 93,06 %
15.10.2021 00:08 12,8 C 12,2 C 10,6 C 83 % 1020,1 hPa 0,0 l/m 0 min 0 min 0 W/m 16,1 km/h (3 Bft) 95,83 %
15.10.2021 00:10 12,8 C 12,2 C 10,6 C 83 % 1020,1 hPa 0,0 l/m 0 min 0 min 0 W/m 16,1 km/h (3 Bft) 97,83 %
15.10.2021 00:12 12,8 C 12,2 C 10,6 C 83 % 1020,0 hPa 0,0 l/m 0 min 0 min 0 W/m 19,3 km/h (3 Bft) 97,87 %
15.10.2021 00:14 12,7 C 12,2 C 10,6 C 83 % 1020,1 hPa 0,0 l/m 0 min 0 min 0 W/m 19,3 km/h (3 Bft) 100,00 %
15.10.2021 00:16 12,7 C 12,2 C 10,6 C 83 % 1020,0 hPa 0,0 l/m 0 min 0 min 0 W/m 12,9 km/h (3 Bft) 97,87 %
15.10.2021 00:18 12,7 C 12,2 C 10,6 C 83 % 1020,0 hPa 0,0 l/m 0 min 0 min 0 W/m 12,9 km/h (3 Bft) 100,00 %
15.10.2021 00:20 12,7 C 12,2 C 10,6 C 83 % 1019,9 hPa 0,0 l/m 0 min 0 min 0 W/m 19,3 km/h (3 Bft) 100,00 %
15.10.2021 00:22 12,7 C 12,2 C 10,6 C 83 % 1019,9 hPa 0,0 l/m 0 min 0 min 0 W/m 25,7 km/h (4 Bft) 100,00 %
15.10.2021 00:24 12,7 C 12,2 C 10,6 C 83 % 1019,9 hPa 0,0 l/m 0 min 0 min 0 W/m 16,1 km/h (3 Bft) 100,00 %
15.10.2021 00:26 12,7 C 12,2 C 10,6 C 83 % 1019,9 hPa 0,0 l/m 0 min 0 min 0 W/m 16,1 km/h (3 Bft) 97,87 %
15.10.2021 00:28 12,6 C 12,2 C 10,6 C 83 % 1019,9 hPa 0,0 l/m 0 min 0 min 0 W/m 19,3 km/h (3 Bft) 100,00 %
15.10.2021 00:30 12,6 C 12,2 C 10,6 C 83 % 1019,8 hPa 0,0 l/m 0 min 0 min 0 W/m 19,3 km/h (3 Bft) 100,00 %
15.10.2021 00:32 12,6 C 12,2 C 10,6 C 83 % 1019,8 hPa 0,0 l/m 0 min 0 min 0 W/m 19,3 km/h (3 Bft) 100,00 %
15.10.2021 00:34 12,6 C 12,2 C 10,6 C 83 % 1019,8 hPa 0,0 l/m 0 min 0 min 0 W/m 16,1 km/h (3 Bft) 100,00 %
15.10.2021 00:36 12,6 C 12,2 C 10,6 C 83 % 1019,7 hPa 0,0 l/m 0 min 0 min 0 W/m 19,3 km/h (3 Bft) 100,00 %
15.10.2021 00:38 12,6 C 12,2 C 10,6 C 83 % 1019,7 hPa 0,0 l/m 0 min 0 min 0 W/m 19,3 km/h (3 Bft) 97,87 %
15.10.2021 00:40 12,6 C 12,2 C 10,6 C 83 % 1019,7 hPa 0,0 l/m 0 min 0 min 0 W/m 9,7 km/h (2 Bft) 100,00 %
15.10.2021 00:42 12,6 C 12,2 C 10,6 C 83 % 1019,7 hPa 0,0 l/m 0 min 0 min 0 W/m 25,7 km/h (4 Bft) 100,00 %
15.10.2021 00:44 12,6 C 12,2 C 10,6 C 83 % 1019,6 hPa 0,0 l/m 0 min 0 min 0 W/m 12,9 km/h (3 Bft) 100,00 %
15.10.2021 00:46 12,6 C 12,2 C 10,6 C 83 % 1019,6 hPa 0,0 l/m 0 min 0 min 0 W/m 22,5 km/h (4 Bft) 100,00 %
15.10.2021 00:48 12,6 C 12,2 C 10,6 C 83 % 1019,6 hPa 0,0 l/m 0 min 0 min 0 W/m 12,9 km/h (3 Bft) 97,87 %
15.10.2021 00:50 12,6 C 12,2 C 10,6 C 83 % 1019,6 hPa 0,0 l/m 0 min 0 min 0 W/m 19,3 km/h (3 Bft) 100,00 %
15.10.2021 00:52 12,6 C 12,2 C 10,6 C 83 % 1019,5 hPa 0,0 l/m 0 min 0 min 0 W/m 22,5 km/h (4 Bft) 100,00 %
15.10.2021 00:54 12,6 C 12,2 C 10,6 C 83 % 1019,5 hPa 0,0 l/m 0 min 0 min 0 W/m 19,3 km/h (3 Bft) 97,87 %
15.10.2021 00:56 12,6 C 11,7 C 10,6 C 83 % 1019,5 hPa 0,0 l/m 0 min 0 min 0 W/m 12,9 km/h (3 Bft) 100,00 %
15.10.2021 00:58 12,6 C 11,7 C 10,6 C 83 % 1019,4 hPa 0,0 l/m 0 min 0 min 0 W/m 12,9 km/h (3 Bft) 100,00 %
15.10.2021 01:00 12,6 C 11,7 C 10,6 C 83 % 1019,3 hPa 0,0 l/m 0 min 0 min 0 W/m 12,9 km/h (3 Bft) 100,00 %
15.10.2021 01:02 12,5 C 11,7 C 10,6 C 83 % 1019,3 hPa 0,0 l/m 0 min 0 min 0 W/m 19,3 km/h (3 Bft) 100,00 %
15.10.2021 01:04 12,5 C 11,7 C 10,6 C 83 % 1019,3 hPa 0,0 l/m 0 min 0 min 0 W/m 12,9 km/h (3 Bft) 100,00 %
15.10.2021 01:06 12,5 C 11,7 C 10,6 C 83 % 1019,3 hPa 0,0 l/m 0 min 0 min 0 W/m 25,7 km/h (4 Bft) 100,00 %
15.10.2021 01:08 12,5 C 11,7 C 10,6 C 83 % 1019,3 hPa 0,0 l/m 0 min 0 min 0 W/m 19,3 km/h (3 Bft) 100,00 %
15.10.2021 01:10 12,5 C 11,7 C 10,6 C 82 % 1019,3 hPa 0,0 l/m 0 min 0 min 0 W/m 29,0 km/h (5 Bft) 100,00 %
15.10.2021 01:12 12,5 C 11,7 C 10,6 C 82 % 1019,3 hPa 0,0 l/m 0 min 0 min 0 W/m 19,3 km/h (3 Bft) 100,00 %
15.10.2021 01:14 12,5 C 11,7 C 10,6 C 82 % 1019,2 hPa 0,0 l/m 0 min 0 min 0 W/m 19,3 km/h (3 Bft) 100,00 %
15.10.2021 01:16 12,5 C 11,7 C 10,6 C 82 % 1019,2 hPa 0,0 l/m 0 min 0 min 0 W/m 19,3 km/h (3 Bft) 100,00 %
15.10.2021 01:18 12,5 C 11,7 C 10,6 C 82 % 1019,1 hPa 0,0 l/m 0 min 0 min 0 W/m 16,1 km/h (3 Bft) 100,00 %
15.10.2021 01:20 12,4 C 11,7 C 10,6 C 82 % 1019,0 hPa 0,0 l/m 0 min 0 min 0 W/m 16,1 km/h (3 Bft) 100,00 %
15.10.2021 01:22 12,4 C 11,7 C 10,6 C 82 % 1019,1 hPa 0,0 l/m 0 min 0 min 0 W/m 16,1 km/h (3 Bft) 97,87 %
15.10.2021 01:24 12,4 C 11,7 C 10,6 C 82 % 1019,1 hPa 0,0 l/m 0 min 0 min 0 W/m 22,5 km/h (4 Bft) 100,00 %
15.10.2021 01:26 12,4 C 11,7 C 10,6 C 82 % 1019,0 hPa 0,0 l/m 0 min 0 min 0 W/m 19,3 km/h (3 Bft) 97,83 %
15.10.2021 01:28 12,4 C 11,7 C 10,6 C 82 % 1019,1 hPa 0,0 l/m 0 min 0 min 0 W/m 22,5 km/h (4 Bft) 100,00 %
15.10.2021 01:30 12,4 C 11,7 C 10,6 C 82 % 1019,1 hPa 0,0 l/m 0 min 0 min 0 W/m 22,5 km/h (4 Bft) 100,00 %
15.10.2021 01:32 12,4 C 11,7 C 10,6 C 82 % 1018,9 hPa 0,0 l/m 0 min 0 min 0 W/m 16,1 km/h (3 Bft) 95,74 %
15.10.2021 01:34 12,3 C 11,7 C 10,6 C 82 % 1019,0 hPa 0,0 l/m 0 min 0 min 0 W/m 19,3 km/h (3 Bft) 97,87 %
15.10.2021 01:36 12,3 C 11,7 C 10,6 C 82 % 1019,0 hPa 0,0 l/m 0 min 0 min 0 W/m 19,3 km/h (3 Bft) 97,87 %
15.10.2021 01:38 12,3 C 11,7 C 10,6 C 81 % 1019,0 hPa 0,0 l/m 0 min 0 min 0 W/m 19,3 km/h (3 Bft) 97,83 %
15.10.2021 01:40 12,3 C 11,7 C 10,6 C 81 % 1019,0 hPa 0,0 l/m 0 min 0 min 0 W/m 19,3 km/h (3 Bft) 97,87 %
15.10.2021 01:42 12,2 C 11,7 C 10,0 C 81 % 1019,0 hPa 0,0 l/m 0 min 0 min 0 W/m 16,1 km/h (3 Bft) 97,87 %
15.10.2021 01:44 12,2 C 11,7 C 10,0 C 81 % 1019,0 hPa 0,0 l/m 0 min 0 min 0 W/m 25,7 km/h (4 Bft) 97,87 %
15.10.2021 01:46 12,1 C 11,7 C 10,0 C 81 % 1019,0 hPa 0,0 l/m 0 min 0 min 0 W/m 19,3 km/h (3 Bft) 97,87 %
15.10.2021 01:48 12,1 C 11,7 C 10,0 C 81 % 1019,1 hPa 0,0 l/m 0 min 0 min 0 W/m 22,5 km/h (4 Bft) 97,87 %
15.10.2021 01:50 12,1 C 11,7 C 10,0 C 81 % 1019,0 hPa 0,0 l/m 0 min 0 min 0 W/m 16,1 km/h (3 Bft) 95,65 %
15.10.2021 01:52 12,1 C 11,7 C 10,0 C 81 % 1019,0 hPa 0,0 l/m 0 min 0 min 0 W/m 12,9 km/h (3 Bft) 97,87 %
15.10.2021 01:54 12,0 C 11,7 C 10,0 C 81 % 1019,0 hPa 0,0 l/m 0 min 0 min 0 W/m 16,1 km/h (3 Bft) 95,74 %
15.10.2021 01:56 12,0 C 11,7 C 10,0 C 81 % 1019,0 hPa 0,0 l/m 0 min 0 min 0 W/m 16,1 km/h (3 Bft) 97,87 %
15.10.2021 01:58 12,0 C 11,7 C 10,0 C 81 % 1018,8 hPa 0,0 l/m 0 min 0 min 0 W/m 22,5 km/h (4 Bft) 97,87 %
15.10.2021 02:00 12,0 C 11,1 C 10,0 C 81 % 1018,9 hPa 0,0 l/m 0 min 0 min 0 W/m 25,7 km/h (4 Bft) 95,74 %
15.10.2021 02:02 12,0 C 11,1 C 10,0 C 81 % 1018,8 hPa 0,0 l/m 0 min 0 min 0 W/m 16,1 km/h (3 Bft) 95,65 %
15.10.2021 02:04 12,0 C 11,1 C 10,0 C 81 % 1018,8 hPa 0,0 l/m 0 min 0 min 0 W/m 25,7 km/h (4 Bft) 93,75 %
15.10.2021 02:06 11,9 C 11,1 C 10,0 C 81 % 1018,8 hPa 0,0 l/m 0 min 0 min 0 W/m 19,3 km/h (3 Bft) 93,62 %
15.10.2021 02:08 11,9 C 11,1 C 10,0 C 81 % 1018,8 hPa 0,0 l/m 0 min 0 min 0 W/m 19,3 km/h (3 Bft) 97,87 %
15.10.2021 02:10 11,9 C 11,1 C 10,0 C 81 % 1018,8 hPa 0,0 l/m 0 min 0 min 0 W/m 22,5 km/h (4 Bft) 93,62 %
15.10.2021 02:12 11,9 C 11,1 C 10,0 C 81 % 1018,8 hPa 0,0 l/m 0 min 0 min 0 W/m 22,5 km/h (4 Bft) 95,65 %
15.10.2021 02:14 11,9 C 11,1 C 10,0 C 81 % 1018,8 hPa 0,0 l/m 0 min 0 min 0 W/m 12,9 km/h (3 Bft) 95,74 %
15.10.2021 02:16 11,8 C 11,1 C 10,0 C 81 % 1018,8 hPa 0,0 l/m 0 min 0 min 0 W/m 22,5 km/h (4 Bft) 95,35 %
15.10.2021 02:18 11,8 C 11,1 C 10,0 C 81 % 1018,8 hPa 0,0 l/m 0 min 0 min 0 W/m 9,7 km/h (2 Bft) 95,92 %
15.10.2021 02:20 11,8 C 11,1 C 10,0 C 81 % 1018,7 hPa 0,0 l/m 0 min 0 min 0 W/m 16,1 km/h (3 Bft) 93,88 %
15.10.2021 02:22 11,8 C 11,1 C 10,0 C 81 % 1018,7 hPa 0,0 l/m 0 min 0 min 0 W/m 19,3 km/h (3 Bft) 93,62 %
15.10.2021 02:24 11,8 C 11,1 C 10,0 C 81 % 1018,7 hPa 0,0 l/m 0 min 0 min 0 W/m 16,1 km/h (3 Bft) 95,24 %
15.10.2021 02:26 11,7 C 11,1 C 10,0 C 81 % 1018,7 hPa 0,0 l/m 0 min 0 min 0 W/m 19,3 km/h (3 Bft) 94,00 %
15.10.2021 02:28 11,7 C 11,1 C 10,0 C 81 % 1018,6 hPa 0,0 l/m 0 min 0 min 0 W/m 22,5 km/h (4 Bft) 95,83 %
15.10.2021 02:30 11,7 C 11,1 C 10,0 C 81 % 1018,6 hPa 0,0 l/m 0 min 0 min 0 W/m 22,5 km/h (4 Bft) 95,74 %
15.10.2021 02:32 11,6 C 11,1 C 9,5 C 81 % 1018,6 hPa 0,0 l/m 0 min 0 min 0 W/m 12,9 km/h (3 Bft) 95,24 %
15.10.2021 02:34 11,6 C 11,1 C 9,5 C 81 % 1018,6 hPa 0,0 l/m 0 min 0 min 0 W/m 19,3 km/h (3 Bft) 96,00 %
15.10.2021 02:36 11,6 C 11,1 C 9,5 C 81 % 1018,6 hPa 0,0 l/m 0 min 0 min 0 W/m 16,1 km/h (3 Bft) 93,75 %
15.10.2021 02:38 11,6 C 11,1 C 9,5 C 81 % 1018,5 hPa 0,0 l/m 0 min 0 min 0 W/m 16,1 km/h (3 Bft) 93,62 %
15.10.2021 02:40 11,6 C 11,1 C 9,5 C 81 % 1018,6 hPa 0,0 l/m 0 min 0 min 0 W/m 12,9 km/h (3 Bft) 95,35 %
15.10.2021 02:42 11,5 C 11,1 C 9,5 C 81 % 1018,4 hPa 0,0 l/m 0 min 0 min 0 W/m 19,3 km/h (3 Bft) 93,88 %
15.10.2021 02:44 11,5 C 10,6 C 9,5 C 82 % 1018,4 hPa 0,0 l/m 0 min 0 min 0 W/m 16,1 km/h (3 Bft) 95,92 %
15.10.2021 02:46 11,5 C 10,6 C 9,5 C 82 % 1018,4 hPa 0,0 l/m 0 min 0 min 0 W/m 6,4 km/h (2 Bft) 93,62 %
15.10.2021 02:48 11,5 C 10,6 C 9,5 C 82 % 1018,4 hPa 0,0 l/m 0 min 0 min 0 W/m 16,1 km/h (3 Bft) 95,24 %
15.10.2021 02:50 11,5 C 10,6 C 9,5 C 82 % 1018,4 hPa 0,0 l/m 0 min 0 min 0 W/m 16,1 km/h (3 Bft) 92,00 %
15.10.2021 02:52 11,4 C 10,6 C 9,5 C 82 % 1018,4 hPa 0,0 l/m 0 min 0 min 0 W/m 22,5 km/h (4 Bft) 97,92 %
15.10.2021 02:54 11,4 C 10,6 C 9,5 C 82 % 1018,4 hPa 0,0 l/m 0 min 0 min 0 W/m 25,7 km/h (4 Bft) 97,87 %
15.10.2021 02:56 11,4 C 10,6 C 9,5 C 82 % 1018,3 hPa 0,0 l/m 0 min 0 min 0 W/m 12,9 km/h (3 Bft) 97,62 %
15.10.2021 02:58 11,4 C 10,6 C 9,5 C 82 % 1018,4 hPa 0,0 l/m 0 min 0 min 0 W/m 16,1 km/h (3 Bft) 100,00 %
15.10.2021 03:00 11,4 C 10,6 C 9,5 C 82 % 1018,3 hPa 0,0 l/m 0 min 0 min 0 W/m 16,1 km/h (3 Bft) 100,00 %
15.10.2021 03:02 11,3 C 10,6 C 9,5 C 82 % 1018,2 hPa 0,0 l/m 0 min 0 min 0 W/m 16,1 km/h (3 Bft) 100,00 %
15.10.2021 03:04 11,3 C 10,6 C 9,5 C 82 % 1018,3 hPa 0,0 l/m 0 min 0 min 0 W/m 16,1 km/h (3 Bft) 100,00 %
15.10.2021 03:06 11,3 C 10,6 C 9,5 C 82 % 1018,3 hPa 0,0 l/m 0 min 0 min 0 W/m 12,9 km/h (3 Bft) 100,00 %
15.10.2021 03:08 11,3 C 10,6 C 9,5 C 82 % 1018,2 hPa 0,0 l/m 0 min 0 min 0 W/m 16,1 km/h (3 Bft) 100,00 %
15.10.2021 03:10 11,2 C 10,6 C 9,5 C 82 % 1018,3 hPa 0,0 l/m 0 min 0 min 0 W/m 19,3 km/h (3 Bft) 100,00 %
15.10.2021 03:12 11,2 C 10,6 C 9,5 C 82 % 1018,2 hPa 0,0 l/m 0 min 0 min 0 W/m 12,9 km/h (3 Bft) 95,65 %
15.10.2021 03:14 11,1 C 10,6 C 9,5 C 82 % 1018,3 hPa 0,0 l/m 0 min 0 min 0 W/m 29,0 km/h (5 Bft) 100,00 %
15.10.2021 03:16 11,1 C 10,6 C 8,9 C 82 % 1018,1 hPa 0,0 l/m 0 min 0 min 0 W/m 16,1 km/h (3 Bft) 95,92 %
15.10.2021 03:18 11,1 C 10,0 C 8,9 C 82 % 1018,1 hPa 0,0 l/m 0 min 0 min 0 W/m 12,9 km/h (3 Bft) 100,00 %
15.10.2021 03:20 11,0 C 10,0 C 8,9 C 82 % 1018,1 hPa 0,0 l/m 0 min 0 min 0 W/m 16,1 km/h (3 Bft) 100,00 %
15.10.2021 03:22 11,0 C 10,0 C 8,9 C 82 % 1018,0 hPa 0,0 l/m 0 min 0 min 0 W/m 25,7 km/h (4 Bft) 100,00 %
15.10.2021 03:24 10,9 C 10,0 C 8,9 C 83 % 1018,0 hPa 0,0 l/m 0 min 0 min 0 W/m 12,9 km/h (3 Bft) 100,00 %
15.10.2021 03:26 10,9 C 10,0 C 8,9 C 83 % 1018,0 hPa 0,0 l/m 0 min 0 min 0 W/m 16,1 km/h (3 Bft) 97,92 %
15.10.2021 03:28 10,9 C 10,0 C 8,9 C 83 % 1017,9 hPa 0,0 l/m 0 min 0 min 0 W/m 19,3 km/h (3 Bft) 97,87 %
15.10.2021 03:30 10,9 C 10,0 C 8,9 C 83 % 1017,9 hPa 0,0 l/m 0 min 0 min 0 W/m 16,1 km/h (3 Bft) 97,62 %
15.10.2021 03:32 10,8 C 10,0 C 8,9 C 83 % 1017,9 hPa 0,0 l/m 0 min 0 min 0 W/m 16,1 km/h (3 Bft) 96,00 %
15.10.2021 03:34 10,8 C 10,0 C 8,9 C 83 % 1017,8 hPa 0,0 l/m 0 min 0 min 0 W/m 22,5 km/h (4 Bft) 97,96 %
15.10.2021 03:36 10,8 C 10,0 C 8,9 C 83 % 1017,8 hPa 0,0 l/m 0 min 0 min 0 W/m 12,9 km/h (3 Bft) 97,83 %
15.10.2021 03:38 10,8 C 10,0 C 8,9 C 83 % 1017,7 hPa 0,0 l/m 0 min 0 min 0 W/m 25,7 km/h (4 Bft) 97,87 %
15.10.2021 03:40 10,7 C 10,0 C 8,9 C 83 % 1017,7 hPa 0,0 l/m 0 min 0 min 0 W/m 16,1 km/h (3 Bft) 95,74 %
15.10.2021 03:42 10,6 C 10,0 C 8,9 C 83 % 1017,7 hPa 0,0 l/m 0 min 0 min 0 W/m 16,1 km/h (3 Bft) 95,24 %
15.10.2021 03:44 10,6 C 10,0 C 8,9 C 84 % 1017,7 hPa 0,0 l/m 0 min 0 min 0 W/m 12,9 km/h (3 Bft) 98,00 %
15.10.2021 03:46 10,6 C 10,0 C 8,9 C 84 % 1017,6 hPa 0,0 l/m 0 min 0 min 0 W/m 12,9 km/h (3 Bft) 97,92 %
15.10.2021 03:48 10,6 C 10,0 C 8,9 C 84 % 1017,6 hPa 0,0 l/m 0 min 0 min 0 W/m 12,9 km/h (3 Bft) 97,87 %
15.10.2021 03:50 10,6 C 10,0 C 8,9 C 84 % 1017,6 hPa 0,0 l/m 0 min 0 min 0 W/m 19,3 km/h (3 Bft) 97,67 %
15.10.2021 03:52 10,6 C 10,0 C 8,9 C 84 % 1017,6 hPa 0,0 l/m 0 min 0 min 0 W/m 16,1 km/h (3 Bft) 97,96 %
15.10.2021 03:54 10,6 C 10,0 C 8,9 C 84 % 1017,5 hPa 0,0 l/m 0 min 0 min 0 W/m 16,1 km/h (3 Bft) 97,96 %
15.10.2021 03:56 10,6 C 10,0 C 8,9 C 84 % 1017,5 hPa 0,0 l/m 0 min 0 min 0 W/m 12,9 km/h (3 Bft) 97,87 %
15.10.2021 03:58 10,6 C 10,0 C 8,9 C 84 % 1017,6 hPa 0,0 l/m 0 min 0 min 0 W/m 12,9 km/h (3 Bft) 97,62 %
15.10.2021 04:00 10,6 C 10,0 C 8,9 C 84 % 1017,6 hPa 0,0 l/m 0 min 0 min 0 W/m 19,3 km/h (3 Bft) 100,00 %
15.10.2021 04:05 10,5 C 10,0 C 8,9 C 84 % 1017,4 hPa 0,0 l/m 0 min 0 min 0 W/m 22,5 km/h (4 Bft) 100,00 %
15.10.2021 04:06 10,5 C 10,0 C 8,9 C 84 % 1017,4 hPa 0,0 l/m 0 min 0 min 0 W/m 19,3 km/h (3 Bft) 100,00 %
15.10.2021 04:08 10,5 C 10,0 C 8,9 C 84 % 1017,4 hPa 0,0 l/m 0 min 0 min 0 W/m 19,3 km/h (3 Bft) 100,00 %
15.10.2021 04:10 10,5 C 10,0 C 8,9 C 84 % 1017,4 hPa 0,0 l/m 0 min 0 min 0 W/m 19,3 km/h (3 Bft) 100,00 %
15.10.2021 04:12 10,5 C 10,0 C 8,9 C 84 % 1017,4 hPa 0,0 l/m 0 min 0 min 0 W/m 12,9 km/h (3 Bft) 100,00 %
15.10.2021 04:14 10,5 C 10,0 C 8,9 C 84 % 1017,3 hPa 0,0 l/m 0 min 0 min 0 W/m 22,5 km/h (4 Bft) 93,62 %
15.10.2021 04:16 10,5 C 10,0 C 8,9 C 84 % 1017,3 hPa 0,0 l/m 0 min 0 min 0 W/m 19,3 km/h (3 Bft) 100,00 %
15.10.2021 04:18 10,5 C 10,0 C 8,9 C 84 % 1017,2 hPa 0,0 l/m 0 min 0 min 0 W/m 16,1 km/h (3 Bft) 100,00 %
15.10.2021 04:20 10,5 C 10,0 C 8,9 C 85 % 1017,3 hPa 0,0 l/m 0 min 0 min 0 W/m 19,3 km/h (3 Bft) 100,00 %
15.10.2021 04:22 10,5 C 10,0 C 8,9 C 85 % 1017,2 hPa 0,0 l/m 0 min 0 min 0 W/m 19,3 km/h (3 Bft) 100,00 %
15.10.2021 04:24 10,5 C 10,0 C 8,9 C 85 % 1017,2 hPa 0,0 l/m 0 min 0 min 0 W/m 9,7 km/h (2 Bft) 100,00 %
15.10.2021 04:26 10,6 C 10,0 C 8,9 C 85 % 1017,2 hPa 0,0 l/m 0 min 0 min 0 W/m 16,1 km/h (3 Bft) 100,00 %
15.10.2021 04:28 10,6 C 10,0 C 8,9 C 85 % 1017,2 hPa 0,0 l/m 0 min 0 min 0 W/m 16,1 km/h (3 Bft) 100,00 %
15.10.2021 04:30 10,5 C 10,0 C 8,9 C 85 % 1017,1 hPa 0,0 l/m 0 min 0 min 0 W/m 12,9 km/h (3 Bft) 100,00 %
15.10.2021 04:32 10,6 C 10,0 C 8,9 C 85 % 1017,1 hPa 0,0 l/m 0 min 0 min 0 W/m 16,1 km/h (3 Bft) 100,00 %
15.10.2021 04:34 10,6 C 10,0 C 8,9 C 85 % 1017,0 hPa 0,0 l/m 0 min 0 min 0 W/m 16,1 km/h (3 Bft) 100,00 %
15.10.2021 04:36 10,6 C 10,0 C 8,9 C 85 % 1017,0 hPa 0,0 l/m 0 min 0 min 0 W/m 9,7 km/h (2 Bft) 100,00 %
15.10.2021 04:38 10,6 C 10,0 C 8,9 C 85 % 1017,0 hPa 0,0 l/m 0 min 0 min 0 W/m 12,9 km/h (3 Bft) 100,00 %
15.10.2021 04:40 10,6 C 10,0 C 8,9 C 85 % 1016,9 hPa 0,0 l/m 0 min 0 min 0 W/m 9,7 km/h (2 Bft) 97,87 %
15.10.2021 04:42 10,6 C 10,0 C 8,9 C 85 % 1017,0 hPa 0,0 l/m 0 min 0 min 0 W/m 19,3 km/h (3 Bft) 95,74 %
15.10.2021 04:44 10,6 C 10,0 C 8,9 C 85 % 1017,0 hPa 0,0 l/m 0 min 0 min 0 W/m 12,9 km/h (3 Bft) 100,00 %
15.10.2021 04:46 10,6 C 10,0 C 8,9 C 85 % 1017,0 hPa 0,0 l/m 0 min 0 min 0 W/m 16,1 km/h (3 Bft) 100,00 %
15.10.2021 04:48 10,6 C 10,0 C 8,9 C 85 % 1016,9 hPa 0,0 l/m 0 min 0 min 0 W/m 16,1 km/h (3 Bft) 100,00 %
15.10.2021 04:50 10,6 C 10,0 C 8,9 C 85 % 1016,9 hPa 0,0 l/m 0 min 0 min 0 W/m 16,1 km/h (3 Bft) 97,87 %
15.10.2021 04:52 10,6 C 10,0 C 8,9 C 85 % 1016,9 hPa 0,0 l/m 0 min 0 min 0 W/m 12,9 km/h (3 Bft) 100,00 %
15.10.2021 04:54 10,6 C 10,0 C 8,9 C 85 % 1016,9 hPa 0,0 l/m 0 min 0 min 0 W/m 19,3 km/h (3 Bft) 95,74 %
15.10.2021 04:56 10,6 C 10,0 C 8,9 C 85 % 1016,9 hPa 0,0 l/m 0 min 0 min 0 W/m 16,1 km/h (3 Bft) 95,65 %
15.10.2021 04:58 10,6 C 10,0 C 8,9 C 85 % 1016,9 hPa 0,0 l/m 0 min 0 min 0 W/m 16,1 km/h (3 Bft) 95,74 %
15.10.2021 05:00 10,6 C 10,0 C 8,9 C 85 % 1016,9 hPa 0,0 l/m 0 min 0 min 0 W/m 9,7 km/h (2 Bft) 95,74 %
15.10.2021 05:02 10,6 C 10,0 C 8,9 C 85 % 1016,8 hPa 0,0 l/m 0 min 0 min 0 W/m 12,9 km/h (3 Bft) 93,62 %
15.10.2021 05:04 10,6 C 10,0 C 8,9 C 85 % 1016,8 hPa 0,0 l/m 0 min 0 min 0 W/m 12,9 km/h (3 Bft) 93,62 %
15.10.2021 05:06 10,6 C 10,0 C 8,9 C 85 % 1016,7 hPa 0,0 l/m 0 min 0 min 0 W/m 16,1 km/h (3 Bft) 95,74 %
15.10.2021 05:08 10,6 C 10,0 C 8,9 C 85 % 1016,7 hPa 0,0 l/m 0 min 0 min 0 W/m 12,9 km/h (3 Bft) 95,65 %
15.10.2021 05:10 10,6 C 10,0 C 8,9 C 85 % 1016,8 hPa 0,0 l/m 0 min 0 min 0 W/m 16,1 km/h (3 Bft) 95,74 %
15.10.2021 05:12 10,6 C 10,0 C 8,9 C 85 % 1016,7 hPa 0,0 l/m 0 min 0 min 0 W/m 16,1 km/h (3 Bft) 95,74 %
15.10.2021 05:14 10,6 C 10,0 C 8,9 C 85 % 1016,7 hPa 0,0 l/m 0 min 0 min 0 W/m 16,1 km/h (3 Bft) 95,74 %
15.10.2021 05:16 10,7 C 10,0 C 8,9 C 85 % 1016,7 hPa 0,0 l/m 0 min 0 min 0 W/m 19,3 km/h (3 Bft) 93,62 %
15.10.2021 05:18 10,7 C 10,0 C 8,9 C 85 % 1016,7 hPa 0,0 l/m 0 min 0 min 0 W/m 19,3 km/h (3 Bft) 95,74 %
15.10.2021 05:20 10,7 C 10,0 C 8,9 C 85 % 1016,7 hPa 0,0 l/m 0 min 0 min 0 W/m 12,9 km/h (3 Bft) 93,48 %
15.10.2021 05:22 10,7 C 10,0 C 8,9 C 85 % 1016,7 hPa 0,0 l/m 0 min 0 min 0 W/m 16,1 km/h (3 Bft) 93,62 %
15.10.2021 05:24 10,8 C 10,0 C 8,9 C 85 % 1016,7 hPa 0,0 l/m 0 min 0 min 0 W/m 12,9 km/h (3 Bft) 91,49 %
15.10.2021 05:26 10,8 C 10,0 C 8,9 C 85 % 1016,6 hPa 0,0 l/m 0 min 0 min 0 W/m 12,9 km/h (3 Bft) 93,62 %
15.10.2021 05:28 10,8 C 10,0 C 8,9 C 85 % 1016,5 hPa 0,0 l/m 0 min 0 min 0 W/m 16,1 km/h (3 Bft) 93,62 %
15.10.2021 05:30 10,8 C 10,0 C 8,9 C 85 % 1016,6 hPa 0,0 l/m 0 min 0 min 0 W/m 22,5 km/h (4 Bft) 91,30 %
15.10.2021 05:32 10,8 C 10,0 C 8,9 C 85 % 1016,5 hPa 0,0 l/m 0 min 0 min 0 W/m 19,3 km/h (3 Bft) 91,49 %
15.10.2021 05:34 10,8 C 10,0 C 8,9 C 85 % 1016,5 hPa 0,0 l/m 0 min 0 min 0 W/m 12,9 km/h (3 Bft) 91,49 %
15.10.2021 05:36 10,8 C 10,0 C 8,9 C 85 % 1016,5 hPa 0,0 l/m 0 min 0 min 0 W/m 12,9 km/h (3 Bft) 93,62 %
15.10.2021 05:38 10,8 C 10,0 C 8,9 C 85 % 1016,5 hPa 0,0 l/m 0 min 0 min 0 W/m 16,1 km/h (3 Bft) 93,62 %
15.10.2021 05:40 10,8 C 10,0 C 8,9 C 85 % 1016,4 hPa 0,0 l/m 0 min 0 min 0 W/m 19,3 km/h (3 Bft) 95,74 %
15.10.2021 05:42 10,8 C 10,0 C 8,9 C 85 % 1016,4 hPa 0,0 l/m 0 min 0 min 0 W/m 19,3 km/h (3 Bft) 97,83 %
15.10.2021 05:44 10,8 C 10,6 C 8,9 C 85 % 1016,4 hPa 0,0 l/m 0 min 0 min 0 W/m 19,3 km/h (3 Bft) 95,74 %
15.10.2021 05:46 10,9 C 10,6 C 8,9 C 85 % 1016,4 hPa 0,0 l/m 0 min 0 min 0 W/m 25,7 km/h (4 Bft) 93,62 %
15.10.2021 05:48 10,9 C 10,6 C 8,9 C 85 % 1016,4 hPa 0,0 l/m 0 min 0 min 0 W/m 19,3 km/h (3 Bft) 95,74 %
15.10.2021 05:50 10,9 C 10,6 C 8,9 C 85 % 1016,4 hPa 0,0 l/m 0 min 0 min 0 W/m 19,3 km/h (3 Bft) 97,87 %
15.10.2021 05:52 10,9 C 10,6 C 8,9 C 85 % 1016,4 hPa 0,0 l/m 0 min 0 min 0 W/m 29,0 km/h (5 Bft) 100,00 %
15.10.2021 05:54 10,9 C 10,6 C 8,9 C 85 % 1016,4 hPa 0,0 l/m 0 min 0 min 0 W/m 25,7 km/h (4 Bft) 97,83 %
15.10.2021 05:56 10,9 C 10,6 C 8,9 C 85 % 1016,4 hPa 0,0 l/m 0 min 0 min 0 W/m 12,9 km/h (3 Bft) 95,74 %
15.10.2021 05:58 10,9 C 10,6 C 8,9 C 85 % 1016,3 hPa 0,0 l/m 0 min 0 min 0 W/m 16,1 km/h (3 Bft) 100,00 %
15.10.2021 06:00 10,9 C 10,6 C 8,9 C 85 % 1016,4 hPa 0,0 l/m 0 min 0 min 0 W/m 19,3 km/h (3 Bft) 100,00 %
15.10.2021 06:02 10,9 C 10,6 C 8,9 C 85 % 1016,4 hPa 0,0 l/m 0 min 0 min 0 W/m 16,1 km/h (3 Bft) 100,00 %
15.10.2021 06:04 10,9 C 10,6 C 8,9 C 85 % 1016,3 hPa 0,0 l/m 0 min 0 min 0 W/m 22,5 km/h (4 Bft) 100,00 %
15.10.2021 06:08 10,9 C 10,6 C 8,9 C 85 % 1016,4 hPa 0,0 l/m 0 min 0 min 0 W/m 16,1 km/h (3 Bft) 98,92 %
15.10.2021 06:10 10,9 C 10,6 C 8,9 C 85 % 1016,3 hPa 0,0 l/m 0 min 0 min 0 W/m 19,3 km/h (3 Bft) 100,00 %
15.10.2021 06:12 10,9 C 10,6 C 8,9 C 85 % 1016,2 hPa 0,0 l/m 0 min 0 min 0 W/m 19,3 km/h (3 Bft) 100,00 %
15.10.2021 06:14 10,9 C 10,6 C 8,9 C 85 % 1016,2 hPa 0,0 l/m 0 min 0 min 0 W/m 12,9 km/h (3 Bft) 100,00 %
15.10.2021 06:16 10,9 C 10,6 C 8,9 C 85 % 1016,2 hPa 0,0 l/m 0 min 0 min 0 W/m 6,4 km/h (2 Bft) 100,00 %
15.10.2021 06:18 10,9 C 10,6 C 8,9 C 85 % 1016,2 hPa 0,0 l/m 0 min 0 min 0 W/m 12,9 km/h (3 Bft) 100,00 %
15.10.2021 06:20 10,9 C 10,6 C 8,9 C 85 % 1016,2 hPa 0,0 l/m 0 min 0 min 0 W/m 19,3 km/h (3 Bft) 97,87 %
15.10.2021 06:22 10,9 C 10,6 C 8,9 C 85 % 1016,1 hPa 0,0 l/m 0 min 0 min 0 W/m 16,1 km/h (3 Bft) 100,00 %
15.10.2021 06:24 10,9 C 10,6 C 8,9 C 85 % 1016,0 hPa 0,0 l/m 0 min 0 min 0 W/m 16,1 km/h (3 Bft) 100,00 %
15.10.2021 06:26 10,9 C 10,6 C 8,9 C 85 % 1016,0 hPa 0,0 l/m 0 min 0 min 0 W/m 16,1 km/h (3 Bft) 100,00 %
15.10.2021 06:28 10,9 C 10,6 C 8,9 C 85 % 1016,0 hPa 0,0 l/m 0 min 0 min 0 W/m 16,1 km/h (3 Bft) 100,00 %
15.10.2021 06:30 10,9 C 10,6 C 8,9 C 85 % 1015,9 hPa 0,0 l/m 0 min 0 min 0 W/m 22,5 km/h (4 Bft) 100,00 %
15.10.2021 06:32 10,9 C 10,6 C 8,9 C 85 % 1016,1 hPa 0,0 l/m 0 min 0 min 0 W/m 19,3 km/h (3 Bft) 100,00 %
15.10.2021 06:34 10,9 C 10,6 C 8,9 C 85 % 1015,9 hPa 0,0 l/m 0 min 0 min 0 W/m 16,1 km/h (3 Bft) 100,00 %
15.10.2021 06:36 11,0 C 10,6 C 8,9 C 85 % 1015,9 hPa 0,0 l/m 0 min 0 min 0 W/m 19,3 km/h (3 Bft) 100,00 %
15.10.2021 06:38 10,9 C 10,6 C 8,9 C 85 % 1015,9 hPa 0,0 l/m 0 min 0 min 0 W/m 22,5 km/h (4 Bft) 100,00 %
15.10.2021 06:40 10,9 C 10,6 C 8,9 C 85 % 1015,9 hPa 0,0 l/m 0 min 0 min 0 W/m 19,3 km/h (3 Bft) 100,00 %
15.10.2021 06:42 10,9 C 10,6 C 8,9 C 85 % 1015,9 hPa 0,0 l/m 0 min 0 min 0 W/m 12,9 km/h (3 Bft) 97,87 %
15.10.2021 06:44 10,9 C 10,6 C 8,9 C 85 % 1015,9 hPa 0,0 l/m 0 min 0 min 0 W/m 19,3 km/h (3 Bft) 100,00 %
15.10.2021 06:46 10,9 C 10,6 C 8,9 C 85 % 1015,8 hPa 0,0 l/m 0 min 0 min 0 W/m 22,5 km/h (4 Bft) 100,00 %
15.10.2021 06:48 10,9 C 10,6 C 8,9 C 85 % 1015,8 hPa 0,0 l/m 0 min 0 min 0 W/m 12,9 km/h (3 Bft) 100,00 %
15.10.2021 06:50 10,9 C 10,6 C 8,9 C 85 % 1015,9 hPa 0,0 l/m 0 min 0 min 0 W/m 12,9 km/h (3 Bft) 100,00 %
15.10.2021 06:52 10,9 C 10,6 C 8,9 C 85 % 1015,8 hPa 0,0 l/m 0 min 0 min 0 W/m 22,5 km/h (4 Bft) 100,00 %
15.10.2021 06:54 10,9 C 10,6 C 8,9 C 85 % 1015,8 hPa 0,0 l/m 0 min 0 min 0 W/m 16,1 km/h (3 Bft) 100,00 %
15.10.2021 06:56 10,9 C 10,6 C 8,9 C 85 % 1016,0 hPa 0,0 l/m 0 min 0 min 0 W/m 19,3 km/h (3 Bft) 100,00 %
15.10.2021 06:58 10,9 C 10,6 C 8,9 C 85 % 1015,8 hPa 0,0 l/m 0 min 0 min 0 W/m 22,5 km/h (4 Bft) 100,00 %
15.10.2021 07:00 10,9 C 10,6 C 8,9 C 85 % 1015,9 hPa 0,0 l/m 0 min 0 min 0 W/m 22,5 km/h (4 Bft) 100,00 %
15.10.2021 07:02 10,9 C 10,6 C 8,9 C 85 % 1015,9 hPa 0,0 l/m 0 min 0 min 0 W/m 16,1 km/h (3 Bft) 100,00 %
15.10.2021 07:04 10,9 C 10,6 C 8,9 C 85 % 1015,9 hPa 0,0 l/m 0 min 0 min 0 W/m 16,1 km/h (3 Bft) 95,83 %
15.10.2021 07:06 10,9 C 10,6 C 8,9 C 85 % 1015,8 hPa 0,0 l/m 0 min 0 min 0 W/m 12,9 km/h (3 Bft) 97,83 %
15.10.2021 07:08 10,9 C 10,6 C 8,9 C 85 % 1015,9 hPa 0,0 l/m 0 min 0 min 0 W/m 22,5 km/h (4 Bft) 100,00 %
15.10.2021 07:10 10,9 C 10,6 C 8,9 C 85 % 1015,8 hPa 0,0 l/m 0 min 0 min 0 W/m 25,7 km/h (4 Bft) 100,00 %
15.10.2021 07:12 10,9 C 10,6 C 8,9 C 85 % 1015,8 hPa 0,0 l/m 0 min 0 min 0 W/m 19,3 km/h (3 Bft) 100,00 %
15.10.2021 07:14 11,0 C 10,6 C 8,9 C 85 % 1015,7 hPa 0,0 l/m 0 min 0 min 0 W/m 25,7 km/h (4 Bft) 100,00 %
15.10.2021 07:16 10,9 C 10,6 C 8,9 C 85 % 1015,8 hPa 0,0 l/m 0 min 0 min 0 W/m 16,1 km/h (3 Bft) 95,74 %
15.10.2021 07:18 11,0 C 10,6 C 8,9 C 85 % 1015,7 hPa 0,0 l/m 0 min 0 min 0 W/m 16,1 km/h (3 Bft) 97,83 %
15.10.2021 07:20 10,9 C 10,6 C 8,9 C 85 % 1015,8 hPa 0,0 l/m 0 min 0 min 0 W/m 29,0 km/h (5 Bft) 97,87 %
15.10.2021 07:22 10,9 C 10,6 C 8,9 C 85 % 1015,7 hPa 0,0 l/m 0 min 0 min 0 W/m 19,3 km/h (3 Bft) 97,87 %
15.10.2021 07:24 10,9 C 10,6 C 8,9 C 85 % 1015,7 hPa 0,0 l/m 0 min 0 min 0 W/m 16,1 km/h (3 Bft) 97,87 %
15.10.2021 07:26 10,9 C 10,6 C 8,9 C 85 % 1015,7 hPa 0,0 l/m 0 min 0 min 0 W/m 12,9 km/h (3 Bft) 94,44 %
15.10.2021 07:28 10,9 C 10,6 C 8,9 C 85 % 1015,7 hPa 0,0 l/m 0 min 0 min 0 W/m 6,4 km/h (2 Bft) 97,87 %
15.10.2021 07:30 11,0 C 10,6 C 8,9 C 85 % 1015,6 hPa 0,0 l/m 0 min 0 min 0 W/m 12,9 km/h (3 Bft) 96,00 %
15.10.2021 07:32 10,9 C 10,6 C 8,9 C 86 % 1015,7 hPa 0,0 l/m 0 min 0 min 0 W/m 19,3 km/h (3 Bft) 97,87 %
15.10.2021 07:34 10,9 C 10,6 C 8,9 C 86 % 1015,7 hPa 0,0 l/m 0 min 0 min 0 W/m 22,5 km/h (4 Bft) 97,83 %
15.10.2021 07:36 11,0 C 10,6 C 8,9 C 86 % 1015,7 hPa 0,0 l/m 0 min 0 min 0 W/m 16,1 km/h (3 Bft) 93,62 %
15.10.2021 07:38 10,9 C 10,6 C 8,9 C 86 % 1015,6 hPa 0,0 l/m 0 min 0 min 0 W/m 16,1 km/h (3 Bft) 97,87 %
15.10.2021 07:40 11,0 C 10,6 C 8,9 C 86 % 1015,6 hPa 0,0 l/m 0 min 0 min 0 W/m 12,9 km/h (3 Bft) 97,87 %
15.10.2021 07:42 10,9 C 10,6 C 8,9 C 86 % 1015,7 hPa 0,0 l/m 0 min 0 min 0 W/m 16,1 km/h (3 Bft) 95,74 %
15.10.2021 07:44 11,0 C 10,6 C 8,9 C 86 % 1015,6 hPa 0,0 l/m 0 min 0 min 0 W/m 12,9 km/h (3 Bft) 93,62 %
15.10.2021 07:46 10,9 C 10,6 C 8,9 C 86 % 1015,7 hPa 0,0 l/m 0 min 0 min 0 W/m 19,3 km/h (3 Bft) 95,65 %
15.10.2021 07:48 11,0 C 10,6 C 8,9 C 86 % 1015,7 hPa 0,0 l/m 0 min 0 min 0 W/m 16,1 km/h (3 Bft) 95,74 %
15.10.2021 07:50 10,9 C 10,6 C 8,9 C 86 % 1015,6 hPa 0,0 l/m 0 min 0 min 0 W/m 22,5 km/h (4 Bft) 95,74 %
15.10.2021 07:52 11,0 C 10,6 C 8,9 C 86 % 1015,6 hPa 0,0 l/m 0 min 0 min 0 W/m 19,3 km/h (3 Bft) 95,74 %
15.10.2021 07:54 11,0 C 10,6 C 8,9 C 86 % 1015,6 hPa 0,0 l/m 0 min 0 min 0 W/m 16,1 km/h (3 Bft) 97,87 %
15.10.2021 07:56 11,0 C 10,6 C 8,9 C 86 % 1015,6 hPa 0,0 l/m 0 min 0 min 0 W/m 19,3 km/h (3 Bft) 97,87 %
15.10.2021 07:58 11,0 C 10,6 C 8,9 C 86 % 1015,7 hPa 0,0 l/m 0 min 0 min 0 W/m 22,5 km/h (4 Bft) 95,65 %
15.10.2021 08:00 11,0 C 10,6 C 8,9 C 86 % 1015,7 hPa 0,0 l/m 0 min 0 min 0 W/m 12,9 km/h (3 Bft) 95,74 %
15.10.2021 08:02 11,0 C 10,6 C 9,5 C 86 % 1015,6 hPa 0,0 l/m 0 min 0 min 0 W/m 16,1 km/h (3 Bft) 95,74 %
15.10.2021 08:04 11,0 C 10,6 C 9,5 C 86 % 1015,6 hPa 0,0 l/m 0 min 0 min 0 W/m 6,4 km/h (2 Bft) 95,74 %
15.10.2021 08:06 11,0 C 10,6 C 9,5 C 86 % 1015,7 hPa 0,0 l/m 0 min 0 min 0 W/m 16,1 km/h (3 Bft) 95,74 %
15.10.2021 08:08 11,0 C 10,6 C 9,5 C 86 % 1015,7 hPa 0,0 l/m 0 min 0 min 0 W/m 16,1 km/h (3 Bft) 93,62 %
15.10.2021 08:10 11,0 C 10,6 C 9,5 C 86 % 1015,7 hPa 0,0 l/m 0 min 0 min 0 W/m 16,1 km/h (3 Bft) 95,65 %
15.10.2021 08:12 11,0 C 10,6 C 9,5 C 86 % 1015,7 hPa 0,0 l/m 0 min 0 min 0 W/m 16,1 km/h (3 Bft) 95,74 %
15.10.2021 08:14 11,0 C 10,6 C 9,5 C 86 % 1015,7 hPa 0,0 l/m 0 min 0 min 0 W/m 12,9 km/h (3 Bft) 95,74 %
15.10.2021 08:16 11,0 C 10,6 C 9,5 C 86 % 1015,7 hPa 0,0 l/m 0 min 0 min 3 W/m 16,1 km/h (3 Bft) 95,74 %
15.10.2021 08:18 11,0 C 10,6 C 9,5 C 86 % 1015,7 hPa 0,0 l/m 0 min 0 min 5 W/m 12,9 km/h (3 Bft) 95,74 %
15.10.2021 08:20 11,0 C 10,6 C 9,5 C 86 % 1015,8 hPa 0,0 l/m 0 min 0 min 6 W/m 22,5 km/h (4 Bft) 93,62 %
15.10.2021 08:22 11,1 C 10,6 C 9,5 C 86 % 1015,6 hPa 0,0 l/m 0 min 0 min 8 W/m 16,1 km/h (3 Bft) 93,48 %
15.10.2021 08:24 11,1 C 10,6 C 9,5 C 86 % 1015,7 hPa 0,0 l/m 0 min 0 min 10 W/m 19,3 km/h (3 Bft) 95,74 %
15.10.2021 08:26 11,1 C 10,6 C 9,5 C 86 % 1015,7 hPa 0,0 l/m 0 min 0 min 12 W/m 19,3 km/h (3 Bft) 93,62 %
15.10.2021 08:28 11,1 C 10,6 C 9,5 C 86 % 1015,7 hPa 0,0 l/m 0 min 0 min 13 W/m 16,1 km/h (3 Bft) 95,74 %
15.10.2021 08:30 11,1 C 10,6 C 9,5 C 86 % 1015,7 hPa 0,0 l/m 0 min 0 min 14 W/m 19,3 km/h (3 Bft) 97,87 %
15.10.2021 08:32 11,1 C 10,6 C 9,5 C 86 % 1015,7 hPa 0,0 l/m 0 min 0 min 14 W/m 19,3 km/h (3 Bft) 97,87 %
15.10.2021 08:34 11,1 C 10,6 C 9,5 C 86 % 1015,6 hPa 0,0 l/m 0 min 0 min 16 W/m 19,3 km/h (3 Bft) 97,83 %
15.10.2021 08:36 11,1 C 10,6 C 9,5 C 86 % 1015,7 hPa 0,0 l/m 0 min 0 min 17 W/m 6,4 km/h (2 Bft) 97,87 %
15.10.2021 08:38 11,1 C 10,6 C 9,5 C 86 % 1015,7 hPa 0,0 l/m 0 min 0 min 21 W/m 16,1 km/h (3 Bft) 97,87 %
15.10.2021 08:40 11,2 C 10,6 C 9,5 C 86 % 1015,7 hPa 0,0 l/m 0 min 0 min 25 W/m 12,9 km/h (3 Bft) 97,87 %
15.10.2021 08:42 11,2 C 10,6 C 9,5 C 86 % 1015,7 hPa 0,0 l/m 0 min 0 min 31 W/m 6,4 km/h (2 Bft) 97,87 %
15.10.2021 08:44 11,2 C 10,6 C 9,5 C 87 % 1015,7 hPa 0,0 l/m 0 min 0 min 36 W/m 16,1 km/h (3 Bft) 100,00 %
15.10.2021 08:46 11,3 C 10,6 C 9,5 C 86 % 1015,7 hPa 0,0 l/m 0 min 0 min 38 W/m 16,1 km/h (3 Bft) 95,74 %
15.10.2021 08:48 11,3 C 10,6 C 9,5 C 86 % 1015,7 hPa 0,0 l/m 0 min 0 min 40 W/m 19,3 km/h (3 Bft) 97,87 %
15.10.2021 08:50 11,3 C 10,6 C 9,5 C 86 % 1015,8 hPa 0,0 l/m 0 min 0 min 33 W/m 12,9 km/h (3 Bft) 100,00 %
15.10.2021 08:52 11,3 C 10,6 C 9,5 C 86 % 1015,8 hPa 0,0 l/m 0 min 0 min 24 W/m 12,9 km/h (3 Bft) 100,00 %
15.10.2021 08:54 11,3 C 10,6 C 9,5 C 86 % 1015,7 hPa 0,0 l/m 0 min 0 min 20 W/m 6,4 km/h (2 Bft) 100,00 %
15.10.2021 08:56 11,3 C 10,6 C 9,5 C 86 % 1015,7 hPa 0,0 l/m 0 min 0 min 22 W/m 16,1 km/h (3 Bft) 100,00 %
15.10.2021 08:58 11,3 C 10,6 C 9,5 C 86 % 1015,7 hPa 0,0 l/m 0 min 0 min 23 W/m 16,1 km/h (3 Bft) 100,00 %
15.10.2021 09:00 11,4 C 10,6 C 9,5 C 86 % 1015,7 hPa 0,0 l/m 0 min 0 min 25 W/m 6,4 km/h (2 Bft) 53,49 %
15.10.2021 09:02 11,4 C 11,1 C 9,5 C 87 % 1015,7 hPa 0,0 l/m 0 min 0 min 32 W/m 16,1 km/h (3 Bft) 100,00 %
15.10.2021 09:04 11,4 C 11,1 C 9,5 C 87 % 1015,7 hPa 0,0 l/m 0 min 0 min 35 W/m 9,7 km/h (2 Bft) 100,00 %
15.10.2021 09:06 11,4 C 11,1 C 9,5 C 87 % 1015,7 hPa 0,0 l/m 0 min 0 min 34 W/m 16,1 km/h (3 Bft) 100,00 %
15.10.2021 09:08 11,4 C 11,1 C 9,5 C 87 % 1015,7 hPa 0,0 l/m 0 min 0 min 32 W/m 12,9 km/h (3 Bft) 100,00 %
15.10.2021 09:10 11,4 C 11,1 C 9,5 C 87 % 1015,7 hPa 0,0 l/m 0 min 0 min 31 W/m 16,1 km/h (3 Bft) 100,00 %
15.10.2021 09:12 11,4 C 11,1 C 9,5 C 87 % 1015,7 hPa 0,0 l/m 0 min 0 min 32 W/m 12,9 km/h (3 Bft) 97,83 %
15.10.2021 09:14 11,4 C 11,1 C 9,5 C 87 % 1015,7 hPa 0,0 l/m 0 min 0 min 32 W/m 12,9 km/h (3 Bft) 97,87 %
15.10.2021 09:16 11,4 C 11,1 C 9,5 C 87 % 1015,6 hPa 0,0 l/m 0 min 0 min 34 W/m 22,5 km/h (4 Bft) 97,87 %
15.10.2021 09:18 11,4 C 11,1 C 9,5 C 87 % 1015,6 hPa 0,0 l/m 0 min 0 min 35 W/m 16,1 km/h (3 Bft) 97,87 %
15.10.2021 09:20 11,4 C 11,1 C 9,5 C 87 % 1015,7 hPa 0,0 l/m 0 min 0 min 35 W/m 19,3 km/h (3 Bft) 97,87 %
15.10.2021 09:22 11,4 C 11,1 C 9,5 C 87 % 1015,7 hPa 0,0 l/m 0 min 0 min 34 W/m 19,3 km/h (3 Bft) 95,74 %
15.10.2021 09:24 11,5 C 11,1 C 9,5 C 87 % 1015,8 hPa 0,0 l/m 0 min 0 min 29 W/m 19,3 km/h (3 Bft) 97,83 %
15.10.2021 09:26 11,5 C 11,1 C 9,5 C 87 % 1015,7 hPa 0,0 l/m 0 min 0 min 29 W/m 9,7 km/h (2 Bft) 97,87 %
15.10.2021 09:28 11,5 C 11,1 C 9,5 C 87 % 1015,7 hPa 0,0 l/m 0 min 0 min 33 W/m 9,7 km/h (2 Bft) 97,87 %
15.10.2021 09:30 11,5 C 11,1 C 9,5 C 87 % 1015,6 hPa 0,0 l/m 0 min 0 min 33 W/m 12,9 km/h (3 Bft) 97,87 %
15.10.2021 09:32 11,5 C 11,1 C 9,5 C 87 % 1015,6 hPa 0,0 l/m 0 min 0 min 33 W/m 12,9 km/h (3 Bft) 97,87 %
15.10.2021 09:34 11,5 C 11,1 C 10,0 C 87 % 1015,7 hPa 0,0 l/m 0 min 0 min 35 W/m 12,9 km/h (3 Bft) 97,83 %
15.10.2021 09:36 11,5 C 11,1 C 10,0 C 87 % 1015,6 hPa 0,0 l/m 0 min 0 min 36 W/m 16,1 km/h (3 Bft) 97,87 %
15.10.2021 09:38 11,5 C 11,1 C 10,0 C 87 % 1015,7 hPa 0,0 l/m 0 min 0 min 34 W/m 9,7 km/h (2 Bft) 97,87 %
15.10.2021 09:40 11,6 C 11,1 C 10,0 C 87 % 1015,7 hPa 0,0 l/m 0 min 0 min 34 W/m 6,4 km/h (2 Bft) 97,87 %
15.10.2021 09:42 11,6 C 11,1 C 10,0 C 87 % 1015,6 hPa 0,0 l/m 0 min 0 min 31 W/m 6,4 km/h (2 Bft) 97,87 %
15.10.2021 09:44 11,6 C 11,1 C 10,0 C 87 % 1015,7 hPa 0,0 l/m 0 min 0 min 32 W/m 16,1 km/h (3 Bft) 97,87 %
15.10.2021 09:46 11,6 C 11,1 C 10,0 C 87 % 1015,7 hPa 0,0 l/m 0 min 0 min 35 W/m 9,7 km/h (2 Bft) 100,00 %
15.10.2021 09:48 11,6 C 11,1 C 10,0 C 87 % 1015,8 hPa 0,0 l/m 0 min 0 min 36 W/m 12,9 km/h (3 Bft) 100,00 %
15.10.2021 09:50 11,6 C 11,1 C 10,0 C 87 % 1015,8 hPa 0,0 l/m 0 min 0 min 44 W/m 19,3 km/h (3 Bft) 100,00 %
15.10.2021 09:52 11,7 C 11,1 C 10,0 C 87 % 1015,8 hPa 0,0 l/m 0 min 0 min 45 W/m 19,3 km/h (3 Bft) 97,87 %
15.10.2021 09:54 11,7 C 11,1 C 10,0 C 87 % 1015,8 hPa 0,0 l/m 0 min 0 min 45 W/m 12,9 km/h (3 Bft) 100,00 %
15.10.2021 09:56 11,7 C 11,1 C 10,0 C 87 % 1015,8 hPa 0,0 l/m 0 min 0 min 48 W/m 9,7 km/h (2 Bft) 100,00 %
15.10.2021 09:58 11,8 C 11,1 C 10,0 C 87 % 1015,8 hPa 0,0 l/m 0 min 0 min 45 W/m 16,1 km/h (3 Bft) 97,83 %
15.10.2021 10:00 11,8 C 11,1 C 10,0 C 87 % 1015,9 hPa 0,0 l/m 0 min 0 min 42 W/m 12,9 km/h (3 Bft) 100,00 %
15.10.2021 10:02 11,8 C 11,7 C 10,0 C 87 % 1015,9 hPa 0,0 l/m 0 min 0 min 39 W/m 12,9 km/h (3 Bft) 97,87 %
15.10.2021 10:04 11,8 C 11,7 C 10,0 C 87 % 1015,9 hPa 0,0 l/m 0 min 0 min 39 W/m 22,5 km/h (4 Bft) 100,00 %
15.10.2021 10:06 11,8 C 11,7 C 10,0 C 87 % 1015,9 hPa 0,0 l/m 0 min 0 min 39 W/m 16,1 km/h (3 Bft) 100,00 %
15.10.2021 10:08 11,8 C 11,7 C 10,0 C 87 % 1015,9 hPa 0,0 l/m 0 min 0 min 35 W/m 16,1 km/h (3 Bft) 100,00 %
15.10.2021 10:10 11,9 C 11,7 C 10,0 C 87 % 1015,9 hPa 0,0 l/m 0 min 0 min 34 W/m 19,3 km/h (3 Bft) 100,00 %
15.10.2021 10:12 11,9 C 11,7 C 10,0 C 87 % 1015,8 hPa 0,0 l/m 0 min 0 min 47 W/m 19,3 km/h (3 Bft) 97,83 %
15.10.2021 10:14 11,9 C 11,7 C 10,0 C 87 % 1015,8 hPa 0,0 l/m 0 min 0 min 74 W/m 12,9 km/h (3 Bft) 100,00 %
15.10.2021 10:16 11,9 C 11,7 C 10,0 C 87 % 1015,7 hPa 0,0 l/m 0 min 0 min 96 W/m 12,9 km/h (3 Bft) 100,00 %
15.10.2021 10:18 11,9 C 11,7 C 10,0 C 88 % 1015,7 hPa 0,0 l/m 0 min 0 min 90 W/m 6,4 km/h (2 Bft) 97,87 %
15.10.2021 10:20 12,0 C 11,7 C 10,6 C 88 % 1015,7 hPa 0,0 l/m 0 min 0 min 77 W/m 9,7 km/h (2 Bft) 100,00 %
15.10.2021 10:22 12,0 C 11,7 C 10,6 C 88 % 1015,8 hPa 0,0 l/m 0 min 0 min 74 W/m 19,3 km/h (3 Bft) 97,87 %
15.10.2021 10:24 12,0 C 11,7 C 10,6 C 88 % 1015,9 hPa 0,0 l/m 0 min 0 min 73 W/m 9,7 km/h (2 Bft) 97,83 %
15.10.2021 10:26 12,0 C 11,7 C 10,6 C 88 % 1016,0 hPa 0,0 l/m 0 min 0 min 84 W/m 12,9 km/h (3 Bft) 100,00 %
15.10.2021 10:28 12,1 C 11,7 C 10,6 C 88 % 1015,9 hPa 0,0 l/m 0 min 0 min 83 W/m 16,1 km/h (3 Bft) 100,00 %
15.10.2021 10:30 12,1 C 12,2 C 10,6 C 88 % 1016,1 hPa 0,0 l/m 0 min 0 min 90 W/m 6,4 km/h (2 Bft) 100,00 %
15.10.2021 10:32 12,2 C 12,2 C 10,6 C 88 % 1016,0 hPa 0,0 l/m 0 min 0 min 106 W/m 12,9 km/h (3 Bft) 97,87 %
15.10.2021 10:34 12,2 C 12,2 C 10,6 C 88 % 1016,1 hPa 0,0 l/m 0 min 0 min 101 W/m 9,7 km/h (2 Bft) 97,87 %
15.10.2021 10:36 12,3 C 12,2 C 10,6 C 88 % 1016,1 hPa 0,0 l/m 0 min 0 min 114 W/m 6,4 km/h (2 Bft) 97,83 %
15.10.2021 10:38 12,3 C 12,2 C 10,6 C 88 % 1016,1 hPa 0,0 l/m 0 min 0 min 132 W/m 6,4 km/h (2 Bft) 96,43 %
15.10.2021 10:40 12,4 C 12,2 C 10,6 C 88 % 1016,0 hPa 0,0 l/m 0 min 0 min 110 W/m 6,4 km/h (2 Bft) 98,00 %
15.10.2021 10:42 12,4 C 12,2 C 10,6 C 88 % 1016,1 hPa 0,0 l/m 0 min 0 min 79 W/m 6,4 km/h (2 Bft) 95,65 %
15.10.2021 10:44 12,4 C 12,2 C 10,6 C 88 % 1016,1 hPa 0,0 l/m 0 min 0 min 63 W/m 19,3 km/h (3 Bft) 91,49 %
15.10.2021 10:46 12,4 C 12,2 C 10,6 C 88 % 1016,1 hPa 0,0 l/m 0 min 0 min 56 W/m 9,7 km/h (2 Bft) 95,74 %
15.10.2021 10:48 12,4 C 12,2 C 10,6 C 88 % 1016,1 hPa 0,0 l/m 0 min 0 min 66 W/m 6,4 km/h (2 Bft) 95,74 %
15.10.2021 10:50 12,5 C 12,2 C 10,6 C 88 % 1016,1 hPa 0,0 l/m 0 min 0 min 76 W/m 19,3 km/h (3 Bft) 95,74 %
15.10.2021 10:52 12,5 C 12,2 C 10,6 C 88 % 1016,2 hPa 0,0 l/m 0 min 0 min 53 W/m 12,9 km/h (3 Bft) 95,74 %
15.10.2021 10:54 12,5 C 11,7 C 10,0 C 88 % 1016,3 hPa 0,0 l/m 0 min 2 min 45 W/m 16,1 km/h (3 Bft) 95,65 %
15.10.2021 10:56 12,5 C 11,7 C 10,0 C 89 % 1016,3 hPa 0,0 l/m 0 min 2 min 41 W/m 6,4 km/h (2 Bft) 95,74 %
15.10.2021 10:58 12,4 C 11,7 C 10,0 C 89 % 1016,4 hPa 0,2 l/m 0 min 2 min 36 W/m 6,4 km/h (2 Bft) 95,74 %
15.10.2021 11:00 12,4 C 11,7 C 10,0 C 89 % 1016,4 hPa 0,0 l/m 0 min 2 min 35 W/m 16,1 km/h (3 Bft) 95,74 %
15.10.2021 11:02 12,3 C 11,1 C 9,5 C 90 % 1016,4 hPa 0,2 l/m 0 min 0 min 27 W/m 16,1 km/h (3 Bft) 93,62 %
15.10.2021 11:04 12,3 C 11,1 C 9,5 C 90 % 1016,4 hPa 0,0 l/m 0 min 2 min 34 W/m 9,7 km/h (2 Bft) 95,74 %
15.10.2021 11:06 12,3 C 11,1 C 9,5 C 91 % 1016,6 hPa 0,2 l/m 0 min 0 min 34 W/m 12,9 km/h (3 Bft) 95,56 %
15.10.2021 11:08 12,2 C 11,1 C 9,5 C 91 % 1016,6 hPa 0,0 l/m 0 min 0 min 30 W/m 12,9 km/h (3 Bft) 95,74 %
15.10.2021 11:10 12,1 C 11,1 C 9,5 C 91 % 1016,7 hPa 0,0 l/m 0 min 2 min 23 W/m 6,4 km/h (2 Bft) 95,74 %
15.10.2021 11:12 12,1 C 11,1 C 9,5 C 92 % 1016,7 hPa 0,2 l/m 0 min 0 min 21 W/m 6,4 km/h (2 Bft) 95,74 %
15.10.2021 11:14 12,1 C 11,1 C 9,5 C 92 % 1016,8 hPa 0,0 l/m 0 min 2 min 20 W/m 9,7 km/h (2 Bft) 93,62 %
15.10.2021 11:16 12,0 C 11,1 C 9,5 C 92 % 1016,9 hPa 0,0 l/m 0 min 0 min 26 W/m 9,7 km/h (2 Bft) 95,74 %
15.10.2021 11:18 12,0 C 10,6 C 9,5 C 93 % 1016,8 hPa 0,0 l/m 0 min 0 min 35 W/m 12,9 km/h (3 Bft) 93,62 %
15.10.2021 11:20 12,0 C 11,1 C 9,5 C 93 % 1016,8 hPa 0,2 l/m 0 min 0 min 45 W/m 9,7 km/h (2 Bft) 93,48 %
15.10.2021 11:22 12,0 C 11,1 C 9,5 C 93 % 1016,9 hPa 0,0 l/m 0 min 0 min 67 W/m 12,9 km/h (3 Bft) 89,36 %
15.10.2021 11:24 12,0 C 11,1 C 9,5 C 93 % 1016,9 hPa 0,0 l/m 0 min 0 min 71 W/m 9,7 km/h (2 Bft) 95,74 %
15.10.2021 11:26 12,0 C 11,1 C 10,0 C 93 % 1016,9 hPa 0,0 l/m 0 min 0 min 72 W/m 9,7 km/h (2 Bft) 93,62 %
15.10.2021 11:28 12,0 C 11,1 C 10,0 C 93 % 1016,9 hPa 0,0 l/m 0 min 0 min 89 W/m 12,9 km/h (3 Bft) 97,87 %
15.10.2021 11:30 12,0 C 11,1 C 10,0 C 94 % 1016,9 hPa 0,0 l/m 0 min 0 min 95 W/m 12,9 km/h (3 Bft) 97,83 %
15.10.2021 11:32 12,0 C 11,7 C 10,0 C 94 % 1016,9 hPa 0,0 l/m 0 min 0 min 111 W/m 12,9 km/h (3 Bft) 97,87 %
15.10.2021 11:34 12,0 C 11,7 C 10,0 C 94 % 1017,0 hPa 0,0 l/m 0 min 0 min 98 W/m 9,7 km/h (2 Bft) 97,87 %
15.10.2021 11:36 12,0 C 11,7 C 10,0 C 94 % 1017,0 hPa 0,0 l/m 0 min 0 min 112 W/m 12,9 km/h (3 Bft) 97,87 %
15.10.2021 11:38 12,0 C 11,7 C 10,0 C 94 % 1017,0 hPa 0,0 l/m 0 min 0 min 83 W/m 12,9 km/h (3 Bft) 94,29 %
15.10.2021 11:40 12,0 C 11,7 C 10,0 C 94 % 1017,0 hPa 0,0 l/m 0 min 0 min 78 W/m 16,1 km/h (3 Bft) 98,18 %
15.10.2021 11:42 12,0 C 11,7 C 10,0 C 94 % 1017,0 hPa 0,0 l/m 0 min 0 min 85 W/m 12,9 km/h (3 Bft) 95,74 %
15.10.2021 11:44 12,0 C 11,7 C 10,0 C 95 % 1017,0 hPa 0,0 l/m 0 min 0 min 86 W/m 16,1 km/h (3 Bft) 93,62 %
15.10.2021 11:46 12,0 C 11,7 C 10,0 C 95 % 1017,1 hPa 0,0 l/m 0 min 0 min 100 W/m 12,9 km/h (3 Bft) 97,87 %
15.10.2021 11:48 12,1 C 11,7 C 10,0 C 95 % 1017,0 hPa 0,0 l/m 0 min 0 min 107 W/m 9,7 km/h (2 Bft) 100,00 %
15.10.2021 11:50 12,1 C 11,7 C 10,0 C 95 % 1017,1 hPa 0,0 l/m 0 min 0 min 109 W/m 9,7 km/h (2 Bft) 100,00 %
15.10.2021 11:52 12,1 C 11,7 C 10,0 C 95 % 1017,2 hPa 0,0 l/m 0 min 0 min 104 W/m 9,7 km/h (2 Bft) 100,00 %
15.10.2021 11:54 12,1 C 11,7 C 10,0 C 95 % 1017,2 hPa 0,0 l/m 0 min 0 min 106 W/m 16,1 km/h (3 Bft) 100,00 %
15.10.2021 11:56 12,1 C 11,7 C 10,0 C 95 % 1017,1 hPa 0,0 l/m 0 min 0 min 110 W/m 16,1 km/h (3 Bft) 100,00 %
15.10.2021 11:58 12,1 C 11,7 C 10,0 C 95 % 1017,1 hPa 0,0 l/m 0 min 0 min 119 W/m 9,7 km/h (2 Bft) 100,00 %
15.10.2021 12:00 12,1 C 11,7 C 10,0 C 95 % 1017,2 hPa 0,0 l/m 0 min 0 min 127 W/m 12,9 km/h (3 Bft) 100,00 %
15.10.2021 12:02 12,1 C 11,7 C 10,6 C 95 % 1017,3 hPa 0,0 l/m 0 min 0 min 121 W/m 9,7 km/h (2 Bft) 100,00 %
15.10.2021 12:04 12,1 C 11,7 C 10,6 C 95 % 1017,3 hPa 0,0 l/m 0 min 0 min 95 W/m 9,7 km/h (2 Bft) 100,00 %
15.10.2021 12:08 12,1 C 11,7 C 10,6 C 95 % 1017,4 hPa 0,0 l/m 0 min 0 min 84 W/m 16,1 km/h (3 Bft) 100,00 %
15.10.2021 12:10 12,1 C 11,7 C 10,6 C 95 % 1017,3 hPa 0,0 l/m 0 min 0 min 64 W/m 9,7 km/h (2 Bft) 100,00 %
15.10.2021 12:12 12,1 C 11,7 C 10,6 C 95 % 1017,4 hPa 0,0 l/m 0 min 0 min 72 W/m 9,7 km/h (2 Bft) 100,00 %
15.10.2021 12:14 12,1 C 11,7 C 10,6 C 95 % 1017,5 hPa 0,0 l/m 0 min 0 min 36 W/m 12,9 km/h (3 Bft) 100,00 %
15.10.2021 12:16 12,1 C 11,7 C 10,0 C 95 % 1017,5 hPa 0,0 l/m 0 min 0 min 34 W/m 25,7 km/h (4 Bft) 100,00 %
15.10.2021 12:18 12,0 C 11,7 C 10,0 C 95 % 1017,6 hPa 0,0 l/m 0 min 0 min 55 W/m 29,0 km/h (5 Bft) 100,00 %
15.10.2021 12:20 11,9 C 11,7 C 10,0 C 95 % 1017,7 hPa 0,0 l/m 0 min 0 min 69 W/m 19,3 km/h (3 Bft) 100,00 %
15.10.2021 12:22 11,6 C 11,1 C 9,5 C 95 % 1017,7 hPa 0,0 l/m 0 min 0 min 71 W/m 19,3 km/h (3 Bft) 97,87 %
15.10.2021 12:24 11,5 C 11,1 C 9,5 C 94 % 1017,7 hPa 0,0 l/m 0 min 0 min 83 W/m 29,0 km/h (5 Bft) 100,00 %
15.10.2021 12:26 11,4 C 11,1 C 9,5 C 94 % 1017,7 hPa 0,0 l/m 0 min 0 min 119 W/m 19,3 km/h (3 Bft) 100,00 %
15.10.2021 12:28 11,3 C 11,1 C 9,5 C 94 % 1017,7 hPa 0,0 l/m 0 min 0 min 147 W/m 12,9 km/h (3 Bft) 100,00 %
15.10.2021 12:30 11,3 C 11,1 C 9,5 C 94 % 1017,8 hPa 0,0 l/m 0 min 2 min 162 W/m 25,7 km/h (4 Bft) 97,87 %
15.10.2021 12:32 11,3 C 11,1 C 9,5 C 94 % 1017,8 hPa 0,0 l/m 0 min 0 min 153 W/m 16,1 km/h (3 Bft) 100,00 %
15.10.2021 12:34 11,3 C 11,1 C 9,5 C 94 % 1017,8 hPa 0,0 l/m 0 min 0 min 147 W/m 16,1 km/h (3 Bft) 100,00 %
15.10.2021 12:36 11,4 C 11,7 C 9,5 C 94 % 1017,8 hPa 0,0 l/m 0 min 0 min 151 W/m 12,9 km/h (3 Bft) 95,74 %
15.10.2021 12:38 11,4 C 11,7 C 10,0 C 94 % 1017,8 hPa 0,0 l/m 0 min 2 min 161 W/m 19,3 km/h (3 Bft) 100,00 %
15.10.2021 12:40 11,4 C 11,7 C 10,0 C 94 % 1017,9 hPa 0,0 l/m 0 min 2 min 175 W/m 16,1 km/h (3 Bft) 100,00 %
15.10.2021 12:42 11,5 C 11,7 C 10,0 C 94 % 1017,9 hPa 0,0 l/m 0 min 2 min 173 W/m 12,9 km/h (3 Bft) 100,00 %
15.10.2021 12:44 11,5 C 11,7 C 10,0 C 94 % 1017,9 hPa 0,0 l/m 0 min 2 min 163 W/m 9,7 km/h (2 Bft) 100,00 %
15.10.2021 12:46 11,5 C 11,7 C 10,0 C 94 % 1017,9 hPa 0,0 l/m 0 min 2 min 153 W/m 19,3 km/h (3 Bft) 100,00 %
15.10.2021 12:48 11,5 C 11,7 C 10,0 C 94 % 1018,0 hPa 0,0 l/m 0 min 2 min 149 W/m 12,9 km/h (3 Bft) 100,00 %
15.10.2021 12:50 11,5 C 11,7 C 10,0 C 93 % 1018,1 hPa 0,0 l/m 0 min 2 min 151 W/m 16,1 km/h (3 Bft) 100,00 %
15.10.2021 12:52 11,6 C 11,7 C 10,0 C 93 % 1018,0 hPa 0,0 l/m 0 min 2 min 158 W/m 16,1 km/h (3 Bft) 100,00 %
15.10.2021 12:54 11,6 C 11,7 C 10,0 C 93 % 1018,0 hPa 0,0 l/m 0 min 0 min 159 W/m 9,7 km/h (2 Bft) 97,87 %
15.10.2021 12:56 11,6 C 11,7 C 10,0 C 93 % 1018,1 hPa 0,0 l/m 0 min 0 min 176 W/m 16,1 km/h (3 Bft) 100,00 %
15.10.2021 12:58 11,6 C 12,2 C 10,0 C 93 % 1018,2 hPa 0,0 l/m 0 min 0 min 188 W/m 16,1 km/h (3 Bft) 100,00 %
15.10.2021 13:00 11,7 C 12,2 C 10,0 C 93 % 1018,2 hPa 0,0 l/m 0 min 0 min 191 W/m 9,7 km/h (2 Bft) 100,00 %
15.10.2021 13:02 11,8 C 12,2 C 10,0 C 93 % 1018,2 hPa 0,0 l/m 0 min 0 min 225 W/m 9,7 km/h (2 Bft) 100,00 %
15.10.2021 13:04 11,8 C 12,2 C 10,6 C 93 % 1018,2 hPa 0,0 l/m 0 min 0 min 235 W/m 12,9 km/h (3 Bft) 100,00 %
15.10.2021 13:06 11,9 C 12,8 C 10,6 C 93 % 1018,2 hPa 0,0 l/m 2 min 0 min 262 W/m 19,3 km/h (3 Bft) 100,00 %
15.10.2021 13:08 11,9 C 12,8 C 10,6 C 93 % 1018,2 hPa 0,0 l/m 2 min 0 min 268 W/m 19,3 km/h (3 Bft) 95,74 %
15.10.2021 13:10 12,0 C 12,8 C 10,6 C 93 % 1018,2 hPa 0,0 l/m 0 min 0 min 221 W/m 9,7 km/h (2 Bft) 98,15 %
15.10.2021 13:12 12,0 C 12,8 C 10,6 C 93 % 1018,2 hPa 0,0 l/m 0 min 0 min 230 W/m 16,1 km/h (3 Bft) 95,74 %
15.10.2021 13:14 12,0 C 12,8 C 10,6 C 93 % 1018,3 hPa 0,0 l/m 2 min 0 min 249 W/m 12,9 km/h (3 Bft) 97,83 %
15.10.2021 13:16 12,1 C 13,3 C 10,6 C 93 % 1018,3 hPa 0,0 l/m 0 min 0 min 239 W/m 9,7 km/h (2 Bft) 97,87 %
15.10.2021 13:18 12,2 C 13,3 C 10,6 C 93 % 1018,2 hPa 0,0 l/m 0 min 0 min 233 W/m 6,4 km/h (2 Bft) 95,74 %
15.10.2021 13:20 12,3 C 13,3 C 11,1 C 93 % 1018,3 hPa 0,0 l/m 2 min 0 min 252 W/m 12,9 km/h (3 Bft) 97,87 %
15.10.2021 13:22 12,3 C 13,9 C 11,1 C 92 % 1018,3 hPa 0,0 l/m 2 min 0 min 280 W/m 12,9 km/h (3 Bft) 95,74 %
15.10.2021 13:24 12,4 C 13,9 C 11,1 C 92 % 1018,3 hPa 0,0 l/m 2 min 0 min 286 W/m 19,3 km/h (3 Bft) 91,49 %
15.10.2021 13:26 12,4 C 13,3 C 11,1 C 92 % 1018,3 hPa 0,0 l/m 2 min 0 min 297 W/m 16,1 km/h (3 Bft) 95,65 %
15.10.2021 13:28 12,5 C 13,9 C 11,1 C 91 % 1018,3 hPa 0,0 l/m 2 min 0 min 265 W/m 6,4 km/h (2 Bft) 95,74 %
15.10.2021 13:30 12,6 C 13,9 C 11,1 C 91 % 1018,3 hPa 0,0 l/m 0 min 0 min 244 W/m 9,7 km/h (2 Bft) 95,74 %
15.10.2021 13:32 12,6 C 13,9 C 11,1 C 91 % 1018,4 hPa 0,0 l/m 2 min 0 min 269 W/m 9,7 km/h (2 Bft) 93,75 %
15.10.2021 13:34 12,7 C 13,9 C 11,1 C 90 % 1018,4 hPa 0,0 l/m 2 min 0 min 269 W/m 12,9 km/h (3 Bft) 95,74 %
15.10.2021 13:36 12,7 C 13,9 C 11,1 C 89 % 1018,4 hPa 0,0 l/m 2 min 0 min 265 W/m 12,9 km/h (3 Bft) 93,48 %
15.10.2021 13:38 12,8 C 13,9 C 11,1 C 89 % 1018,4 hPa 0,0 l/m 2 min 0 min 276 W/m 16,1 km/h (3 Bft) 92,00 %
15.10.2021 13:40 12,8 C 13,9 C 11,1 C 89 % 1018,5 hPa 0,0 l/m 2 min 0 min 287 W/m 22,5 km/h (4 Bft) 93,62 %
15.10.2021 13:42 12,9 C 13,9 C 11,1 C 88 % 1018,4 hPa 0,0 l/m 2 min 0 min 276 W/m 12,9 km/h (3 Bft) 93,62 %
15.10.2021 13:44 12,9 C 13,9 C 11,1 C 88 % 1018,4 hPa 0,0 l/m 0 min 0 min 240 W/m 22,5 km/h (4 Bft) 93,62 %
15.10.2021 13:46 13,0 C 13,9 C 11,1 C 88 % 1018,5 hPa 0,0 l/m 0 min 0 min 231 W/m 9,7 km/h (2 Bft) 95,74 %
15.10.2021 13:48 13,0 C 13,9 C 11,1 C 87 % 1018,5 hPa 0,0 l/m 0 min 0 min 204 W/m 9,7 km/h (2 Bft) 93,48 %
15.10.2021 13:50 13,0 C 13,9 C 11,1 C 87 % 1018,5 hPa 0,0 l/m 0 min 0 min 207 W/m 16,1 km/h (3 Bft) 95,74 %
15.10.2021 13:52 13,0 C 13,9 C 11,1 C 87 % 1018,6 hPa 0,0 l/m 0 min 0 min 223 W/m 12,9 km/h (3 Bft) 95,65 %
15.10.2021 13:54 13,1 C 13,9 C 11,1 C 87 % 1018,5 hPa 0,0 l/m 2 min 0 min 272 W/m 12,9 km/h (3 Bft) 95,74 %
15.10.2021 13:56 13,1 C 13,9 C 11,1 C 86 % 1018,6 hPa 0,0 l/m 2 min 0 min 279 W/m 16,1 km/h (3 Bft) 93,62 %
15.10.2021 13:58 13,1 C 13,9 C 11,1 C 86 % 1018,6 hPa 0,0 l/m 0 min 0 min 244 W/m 16,1 km/h (3 Bft) 95,74 %
15.10.2021 14:00 13,1 C 13,9 C 11,1 C 86 % 1018,6 hPa 0,0 l/m 0 min 0 min 230 W/m 6,4 km/h (2 Bft) 95,65 %
15.10.2021 14:02 13,1 C 13,9 C 11,1 C 85 % 1018,5 hPa 0,0 l/m 0 min 0 min 231 W/m 12,9 km/h (3 Bft) 93,62 %
15.10.2021 14:04 13,1 C 14,4 C 11,7 C 85 % 1018,6 hPa 0,0 l/m 2 min 0 min 264 W/m 16,1 km/h (3 Bft) 95,74 %
15.10.2021 14:06 13,1 C 14,4 C 11,7 C 85 % 1018,6 hPa 0,0 l/m 2 min 0 min 276 W/m 19,3 km/h (3 Bft) 93,62 %
15.10.2021 14:08 13,1 C 13,9 C 11,7 C 85 % 1018,6 hPa 0,0 l/m 2 min 0 min 268 W/m 19,3 km/h (3 Bft) 95,74 %
15.10.2021 14:10 13,2 C 13,9 C 11,7 C 85 % 1018,6 hPa 0,0 l/m 0 min 0 min 234 W/m 19,3 km/h (3 Bft) 97,83 %
15.10.2021 14:12 13,2 C 13,9 C 11,7 C 84 % 1018,6 hPa 0,0 l/m 0 min 0 min 207 W/m 9,7 km/h (2 Bft) 91,49 %
15.10.2021 14:14 13,2 C 13,9 C 11,7 C 84 % 1018,6 hPa 0,0 l/m 0 min 0 min 225 W/m 12,9 km/h (3 Bft) 95,74 %
15.10.2021 14:16 13,2 C 13,9 C 11,7 C 84 % 1018,6 hPa 0,0 l/m 2 min 0 min 241 W/m 9,7 km/h (2 Bft) 97,87 %
15.10.2021 14:18 13,1 C 13,9 C 11,7 C 83 % 1018,6 hPa 0,0 l/m 2 min 0 min 261 W/m 9,7 km/h (2 Bft) 97,87 %
15.10.2021 14:20 13,2 C 14,4 C 11,7 C 83 % 1018,5 hPa 0,0 l/m 2 min 0 min 309 W/m 9,7 km/h (2 Bft) 97,87 %
15.10.2021 14:22 13,2 C 14,4 C 11,7 C 83 % 1018,6 hPa 0,0 l/m 2 min 0 min 354 W/m 12,9 km/h (3 Bft) 97,83 %
15.10.2021 14:24 13,3 C 14,4 C 11,7 C 83 % 1018,6 hPa 0,0 l/m 2 min 0 min 350 W/m 9,7 km/h (2 Bft) 95,74 %
15.10.2021 14:26 13,3 C 14,4 C 11,7 C 82 % 1018,6 hPa 0,0 l/m 0 min 0 min 212 W/m 9,7 km/h (2 Bft) 97,87 %
15.10.2021 14:28 13,3 C 14,4 C 11,7 C 82 % 1018,6 hPa 0,0 l/m 2 min 0 min 280 W/m 9,7 km/h (2 Bft) 100,00 %
15.10.2021 14:30 13,3 C 14,4 C 11,1 C 81 % 1018,6 hPa 0,0 l/m 0 min 0 min 205 W/m 6,4 km/h (2 Bft) 100,00 %
15.10.2021 14:32 13,4 C 13,9 C 11,1 C 81 % 1018,6 hPa 0,0 l/m 0 min 0 min 172 W/m 9,7 km/h (2 Bft) 100,00 %
15.10.2021 14:34 13,4 C 13,9 C 11,1 C 81 % 1018,6 hPa 0,0 l/m 2 min 0 min 298 W/m 12,9 km/h (3 Bft) 100,00 %
15.10.2021 14:36 13,4 C 13,9 C 11,1 C 81 % 1018,6 hPa 0,0 l/m 2 min 0 min 467 W/m 9,7 km/h (2 Bft) 100,00 %
15.10.2021 14:38 13,5 C 14,4 C 11,7 C 81 % 1018,6 hPa 0,0 l/m 2 min 0 min 407 W/m 9,7 km/h (2 Bft) 100,00 %
15.10.2021 14:40 13,5 C 15,0 C 11,7 C 81 % 1018,6 hPa 0,0 l/m 2 min 0 min 474 W/m 16,1 km/h (3 Bft) 100,00 %
15.10.2021 14:42 13,6 C 15,0 C 11,7 C 81 % 1018,6 hPa 0,0 l/m 2 min 0 min 639 W/m 12,9 km/h (3 Bft) 100,00 %
15.10.2021 14:44 13,8 C 15,0 C 12,3 C 81 % 1018,6 hPa 0,0 l/m 2 min 0 min 632 W/m 9,7 km/h (2 Bft) 100,00 %
15.10.2021 14:46 13,9 C 15,0 C 12,3 C 81 % 1018,6 hPa 0,0 l/m 2 min 0 min 640 W/m 9,7 km/h (2 Bft) 97,87 %
15.10.2021 14:48 14,0 C 15,0 C 12,3 C 80 % 1018,6 hPa 0,0 l/m 2 min 0 min 466 W/m 12,9 km/h (3 Bft) 100,00 %
15.10.2021 14:50 14,1 C 15,0 C 12,3 C 78 % 1018,6 hPa 0,0 l/m 2 min 0 min 464 W/m 9,7 km/h (2 Bft) 100,00 %
15.10.2021 14:52 14,2 C 14,4 C 12,3 C 78 % 1018,6 hPa 0,0 l/m 0 min 0 min 140 W/m 9,7 km/h (2 Bft) 100,00 %
15.10.2021 14:54 14,1 C 14,4 C 11,7 C 77 % 1018,7 hPa 0,0 l/m 0 min 0 min 105 W/m 12,9 km/h (3 Bft) 100,00 %
15.10.2021 14:56 14,1 C 13,9 C 11,7 C 77 % 1018,7 hPa 0,0 l/m 0 min 0 min 98 W/m 12,9 km/h (3 Bft) 100,00 %
15.10.2021 14:58 14,0 C 13,9 C 11,7 C 77 % 1018,7 hPa 0,0 l/m 2 min 0 min 238 W/m 6,4 km/h (2 Bft) 100,00 %
15.10.2021 15:00 14,1 C 13,9 C 11,7 C 77 % 1018,7 hPa 0,0 l/m 2 min 0 min 482 W/m 12,9 km/h (3 Bft) 100,00 %
15.10.2021 15:02 14,1 C 13,9 C 11,7 C 77 % 1018,7 hPa 0,0 l/m 2 min 0 min 560 W/m 12,9 km/h (3 Bft) 100,00 %
15.10.2021 15:04 14,1 C 14,4 C 11,7 C 76 % 1018,6 hPa 0,0 l/m 2 min 0 min 558 W/m 12,9 km/h (3 Bft) 100,00 %
15.10.2021 15:06 14,1 C 14,4 C 12,3 C 76 % 1018,6 hPa 0,0 l/m 2 min 0 min 560 W/m 12,9 km/h (3 Bft) 100,00 %
15.10.2021 15:08 14,2 C 14,4 C 12,3 C 76 % 1018,7 hPa 0,0 l/m 2 min 0 min 570 W/m 9,7 km/h (2 Bft) 97,87 %
15.10.2021 15:10 14,2 C 14,4 C 12,3 C 76 % 1018,7 hPa 0,0 l/m 2 min 0 min 543 W/m 16,1 km/h (3 Bft) 100,00 %
15.10.2021 15:12 14,2 C 14,4 C 12,3 C 76 % 1018,7 hPa 0,0 l/m 2 min 0 min 583 W/m 12,9 km/h (3 Bft) 100,00 %
15.10.2021 15:14 14,2 C 14,4 C 12,3 C 76 % 1018,7 hPa 0,0 l/m 2 min 0 min 373 W/m 6,4 km/h (2 Bft) 100,00 %
15.10.2021 15:16 14,2 C 14,4 C 12,3 C 75 % 1018,7 hPa 0,0 l/m 0 min 0 min 89 W/m 16,1 km/h (3 Bft) 100,00 %
15.10.2021 15:18 14,2 C 13,9 C 12,3 C 75 % 1018,7 hPa 0,0 l/m 0 min 0 min 70 W/m 12,9 km/h (3 Bft) 100,00 %
15.10.2021 15:20 14,2 C 13,9 C 11,7 C 75 % 1018,7 hPa 0,0 l/m 0 min 0 min 66 W/m 6,4 km/h (2 Bft) 100,00 %
15.10.2021 15:22 14,2 C 13,3 C 11,7 C 76 % 1018,8 hPa 0,0 l/m 0 min 0 min 65 W/m 6,4 km/h (2 Bft) 97,87 %
15.10.2021 15:24 14,2 C 13,3 C 11,7 C 76 % 1018,8 hPa 0,0 l/m 0 min 0 min 64 W/m 9,7 km/h (2 Bft) 100,00 %
15.10.2021 15:26 14,1 C 13,3 C 11,1 C 76 % 1018,8 hPa 0,0 l/m 0 min 0 min 67 W/m 9,7 km/h (2 Bft) 100,00 %
15.10.2021 15:28 14,0 C 13,3 C 11,1 C 77 % 1018,8 hPa 0,0 l/m 0 min 0 min 181 W/m 6,4 km/h (2 Bft) 100,00 %
15.10.2021 15:30 14,0 C 13,3 C 11,1 C 77 % 1018,8 hPa 0,0 l/m 2 min 0 min 446 W/m 12,9 km/h (3 Bft) 97,87 %
15.10.2021 15:32 14,0 C 13,3 C 11,1 C 77 % 1018,8 hPa 0,0 l/m 2 min 0 min 471 W/m 12,9 km/h (3 Bft) 98,15 %
15.10.2021 15:34 13,9 C 13,9 C 11,7 C 77 % 1018,8 hPa 0,0 l/m 2 min 0 min 485 W/m 16,1 km/h (3 Bft) 97,83 %
15.10.2021 15:36 14,0 C 13,9 C 11,7 C 77 % 1018,8 hPa 0,0 l/m 2 min 0 min 497 W/m 19,3 km/h (3 Bft) 98,04 %
15.10.2021 15:38 14,0 C 13,9 C 11,7 C 77 % 1018,9 hPa 0,0 l/m 2 min 0 min 321 W/m 16,1 km/h (3 Bft) 97,78 %
15.10.2021 15:40 13,9 C 13,9 C 11,7 C 76 % 1018,9 hPa 0,0 l/m 0 min 0 min 129 W/m 12,9 km/h (3 Bft) 97,87 %
15.10.2021 15:42 13,9 C 13,3 C 11,7 C 76 % 1018,9 hPa 0,0 l/m 0 min 0 min 113 W/m 19,3 km/h (3 Bft) 97,87 %
15.10.2021 15:44 13,9 C 13,3 C 11,7 C 75 % 1018,9 hPa 0,0 l/m 0 min 0 min 87 W/m 12,9 km/h (3 Bft) 95,74 %
15.10.2021 15:46 13,9 C 13,3 C 11,1 C 75 % 1018,9 hPa 0,0 l/m 0 min 0 min 70 W/m 12,9 km/h (3 Bft) 97,83 %
15.10.2021 15:48 13,8 C 13,3 C 11,1 C 75 % 1018,9 hPa 0,0 l/m 0 min 0 min 58 W/m 6,4 km/h (2 Bft) 97,87 %
15.10.2021 15:50 13,8 C 12,8 C 11,1 C 76 % 1018,9 hPa 0,0 l/m 0 min 0 min 55 W/m 9,7 km/h (2 Bft) 97,87 %
15.10.2021 15:52 13,8 C 12,8 C 11,1 C 76 % 1018,9 hPa 0,0 l/m 0 min 0 min 65 W/m 6,4 km/h (2 Bft) 97,87 %
15.10.2021 15:54 13,7 C 12,8 C 11,1 C 76 % 1018,9 hPa 0,0 l/m 0 min 0 min 74 W/m 9,7 km/h (2 Bft) 97,87 %
15.10.2021 15:56 13,6 C 12,8 C 11,1 C 77 % 1018,9 hPa 0,0 l/m 0 min 0 min 85 W/m 3,2 km/h (1 Bft) 95,65 %
15.10.2021 15:58 13,6 C 12,8 C 11,1 C 77 % 1018,9 hPa 0,0 l/m 0 min 0 min 105 W/m 3,2 km/h (1 Bft) 93,62 %
15.10.2021 16:00 13,6 C 12,8 C 11,1 C 78 % 1019,0 hPa 0,0 l/m 0 min 0 min 139 W/m 3,2 km/h (1 Bft) 95,74 %
15.10.2021 16:02 13,5 C 13,3 C 11,1 C 79 % 1019,0 hPa 0,0 l/m 0 min 0 min 155 W/m 3,2 km/h (1 Bft) 93,75 %
15.10.2021 16:04 13,5 C 13,3 C 11,1 C 79 % 1018,9 hPa 0,0 l/m 0 min 0 min 159 W/m 3,2 km/h (1 Bft) 95,74 %
15.10.2021 16:06 13,5 C 13,3 C 11,1 C 79 % 1018,9 hPa 0,0 l/m 2 min 0 min 293 W/m 6,4 km/h (2 Bft) 95,74 %
15.10.2021 16:08 13,5 C 13,3 C 11,1 C 79 % 1019,0 hPa 0,0 l/m 0 min 0 min 152 W/m 9,7 km/h (2 Bft) 95,65 %
15.10.2021 16:10 13,5 C 13,3 C 11,7 C 79 % 1018,9 hPa 0,0 l/m 0 min 0 min 130 W/m 9,7 km/h (2 Bft) 95,74 %
15.10.2021 16:12 13,5 C 13,3 C 11,7 C 79 % 1019,0 hPa 0,0 l/m 0 min 0 min 108 W/m 12,9 km/h (3 Bft) 93,62 %
15.10.2021 16:14 13,5 C 13,3 C 11,1 C 79 % 1019,0 hPa 0,0 l/m 0 min 0 min 83 W/m 3,2 km/h (1 Bft) 95,74 %
15.10.2021 16:16 13,5 C 13,3 C 11,1 C 79 % 1019,0 hPa 0,0 l/m 0 min 0 min 64 W/m 6,4 km/h (2 Bft) 95,74 %
15.10.2021 16:18 13,5 C 12,8 C 11,1 C 78 % 1019,0 hPa 0,0 l/m 0 min 0 min 51 W/m 3,2 km/h (1 Bft) 97,87 %
15.10.2021 16:20 13,5 C 12,8 C 11,1 C 79 % 1019,1 hPa 0,0 l/m 0 min 0 min 47 W/m 6,4 km/h (2 Bft) 97,83 %
15.10.2021 16:22 13,5 C 12,8 C 11,1 C 78 % 1019,1 hPa 0,0 l/m 0 min 0 min 49 W/m 12,9 km/h (3 Bft) 93,62 %
15.10.2021 16:24 13,5 C 12,8 C 11,1 C 78 % 1019,1 hPa 0,0 l/m 0 min 0 min 48 W/m 9,7 km/h (2 Bft) 97,87 %
15.10.2021 16:26 13,4 C 12,8 C 11,1 C 78 % 1019,1 hPa 0,0 l/m 0 min 0 min 50 W/m 3,2 km/h (1 Bft) 97,87 %
15.10.2021 16:28 13,4 C 12,8 C 11,1 C 79 % 1019,1 hPa 0,0 l/m 0 min 0 min 56 W/m 3,2 km/h (1 Bft) 97,87 %
15.10.2021 16:30 13,4 C 12,8 C 11,1 C 79 % 1019,1 hPa 0,0 l/m 0 min 0 min 62 W/m 9,7 km/h (2 Bft) 95,74 %
15.10.2021 16:32 13,4 C 12,8 C 11,1 C 78 % 1019,1 hPa 0,0 l/m 0 min 0 min 68 W/m 6,4 km/h (2 Bft) 93,62 %
15.10.2021 16:34 13,4 C 12,8 C 11,1 C 79 % 1019,1 hPa 0,0 l/m 0 min 0 min 75 W/m 9,7 km/h (2 Bft) 100,00 %
15.10.2021 16:36 13,4 C 12,8 C 11,1 C 79 % 1019,1 hPa 0,0 l/m 0 min 0 min 82 W/m 0,0 km/h (0 Bft) 100,00 %
15.10.2021 16:38 13,4 C 12,8 C 11,1 C 79 % 1019,2 hPa 0,0 l/m 0 min 0 min 84 W/m 6,4 km/h (2 Bft) 100,00 %
15.10.2021 16:40 13,4 C 12,8 C 11,1 C 79 % 1019,2 hPa 0,0 l/m 0 min 0 min 83 W/m 3,2 km/h (1 Bft) 95,74 %
15.10.2021 16:42 13,4 C 12,8 C 11,1 C 79 % 1019,2 hPa 0,0 l/m 0 min 0 min 76 W/m 6,4 km/h (2 Bft) 97,83 %
15.10.2021 16:44 13,3 C 12,8 C 11,1 C 79 % 1019,2 hPa 0,0 l/m 0 min 0 min 70 W/m 9,7 km/h (2 Bft) 95,74 %
15.10.2021 16:46 13,3 C 12,8 C 11,1 C 78 % 1019,2 hPa 0,0 l/m 0 min 0 min 68 W/m 6,4 km/h (2 Bft) 97,87 %
15.10.2021 16:48 13,3 C 12,8 C 11,1 C 79 % 1019,2 hPa 0,0 l/m 0 min 0 min 60 W/m 0,0 km/h (0 Bft) 95,74 %
15.10.2021 16:50 13,3 C 12,8 C 11,1 C 79 % 1019,2 hPa 0,0 l/m 0 min 0 min 81 W/m 0,0 km/h (0 Bft) 97,87 %
15.10.2021 16:52 13,2 C 12,8 C 10,6 C 79 % 1019,2 hPa 0,0 l/m 0 min 0 min 105 W/m 3,2 km/h (1 Bft) 97,87 %
15.10.2021 16:54 13,2 C 12,8 C 10,6 C 79 % 1019,2 hPa 0,0 l/m 0 min 0 min 66 W/m 3,2 km/h (1 Bft) 97,83 %
15.10.2021 16:56 13,2 C 12,8 C 10,6 C 79 % 1019,2 hPa 0,0 l/m 2 min 0 min 167 W/m 3,2 km/h (1 Bft) 97,87 %
15.10.2021 16:58 13,1 C 12,8 C 10,6 C 79 % 1019,2 hPa 0,0 l/m 0 min 0 min 81 W/m 3,2 km/h (1 Bft) 97,87 %
15.10.2021 17:00 13,1 C 12,8 C 10,6 C 79 % 1019,2 hPa 0,0 l/m 0 min 0 min 56 W/m 0,0 km/h (0 Bft) 97,87 %
15.10.2021 17:02 13,1 C 12,2 C 10,6 C 79 % 1019,2 hPa 0,0 l/m 0 min 0 min 73 W/m 0,0 km/h (0 Bft) 97,87 %
15.10.2021 17:04 13,1 C 12,2 C 10,6 C 79 % 1019,2 hPa 0,0 l/m 0 min 0 min 53 W/m 0,0 km/h (0 Bft) 97,87 %
15.10.2021 17:06 13,1 C 12,2 C 10,6 C 79 % 1019,2 hPa 0,0 l/m 2 min 0 min 114 W/m 3,2 km/h (1 Bft) 97,83 %
15.10.2021 17:08 13,1 C 12,2 C 10,6 C 79 % 1019,2 hPa 0,0 l/m 2 min 0 min 171 W/m 3,2 km/h (1 Bft) 95,74 %
15.10.2021 17:10 13,0 C 12,2 C 10,6 C 79 % 1019,2 hPa 0,0 l/m 2 min 0 min 106 W/m 0,0 km/h (0 Bft) 97,87 %
15.10.2021 17:12 13,0 C 12,2 C 10,6 C 79 % 1019,2 hPa 0,0 l/m 0 min 0 min 52 W/m 3,2 km/h (1 Bft) 93,62 %
15.10.2021 17:14 13,0 C 12,2 C 10,6 C 79 % 1019,2 hPa 0,0 l/m 0 min 0 min 46 W/m 3,2 km/h (1 Bft) 97,87 %
15.10.2021 17:16 13,0 C 12,2 C 10,6 C 79 % 1019,2 hPa 0,0 l/m 0 min 0 min 44 W/m 3,2 km/h (1 Bft) 97,87 %
15.10.2021 17:18 13,0 C 12,2 C 10,6 C 79 % 1019,2 hPa 0,0 l/m 0 min 0 min 43 W/m 3,2 km/h (1 Bft) 97,83 %
15.10.2021 17:20 13,0 C 12,2 C 10,6 C 79 % 1019,2 hPa 0,0 l/m 0 min 0 min 42 W/m 9,7 km/h (2 Bft) 97,87 %
15.10.2021 17:22 13,0 C 12,2 C 10,6 C 79 % 1019,2 hPa 0,0 l/m 0 min 0 min 41 W/m 6,4 km/h (2 Bft) 95,74 %
15.10.2021 17:24 13,0 C 12,2 C 10,6 C 79 % 1019,2 hPa 0,0 l/m 0 min 0 min 40 W/m 6,4 km/h (2 Bft) 97,87 %
15.10.2021 17:26 13,0 C 12,2 C 10,6 C 79 % 1019,2 hPa 0,0 l/m 0 min 0 min 40 W/m 3,2 km/h (1 Bft) 100,00 %
15.10.2021 17:28 13,0 C 12,2 C 10,6 C 79 % 1019,2 hPa 0,0 l/m 0 min 0 min 39 W/m 6,4 km/h (2 Bft) 100,00 %
15.10.2021 17:30 13,0 C 12,2 C 10,6 C 79 % 1019,2 hPa 0,0 l/m 0 min 0 min 39 W/m 3,2 km/h (1 Bft) 100,00 %
15.10.2021 17:32 13,0 C 12,2 C 10,6 C 79 % 1019,2 hPa 0,0 l/m 0 min 0 min 38 W/m 3,2 km/h (1 Bft) 97,92 %
15.10.2021 17:34 13,0 C 12,2 C 10,6 C 79 % 1019,2 hPa 0,0 l/m 0 min 0 min 37 W/m 0,0 km/h (0 Bft) 100,00 %
15.10.2021 17:36 13,0 C 12,2 C 10,6 C 80 % 1019,2 hPa 0,0 l/m 0 min 0 min 35 W/m 3,2 km/h (1 Bft) 100,00 %
15.10.2021 17:38 13,0 C 12,2 C 10,0 C 80 % 1019,2 hPa 0,0 l/m 0 min 0 min 35 W/m 3,2 km/h (1 Bft) 100,00 %
15.10.2021 17:40 13,0 C 12,2 C 10,0 C 80 % 1019,2 hPa 0,0 l/m 0 min 0 min 33 W/m 3,2 km/h (1 Bft) 100,00 %
15.10.2021 17:42 12,9 C 12,2 C 10,0 C 80 % 1019,2 hPa 0,0 l/m 0 min 0 min 33 W/m 6,4 km/h (2 Bft) 97,83 %
15.10.2021 17:44 12,9 C 12,2 C 10,0 C 80 % 1019,2 hPa 0,0 l/m 0 min 0 min 32 W/m 3,2 km/h (1 Bft) 97,87 %
15.10.2021 17:46 12,9 C 12,2 C 10,0 C 80 % 1019,3 hPa 0,0 l/m 0 min 0 min 32 W/m 3,2 km/h (1 Bft) 100,00 %
15.10.2021 17:48 12,9 C 12,2 C 10,0 C 81 % 1019,3 hPa 0,0 l/m 0 min 0 min 36 W/m 3,2 km/h (1 Bft) 100,00 %
15.10.2021 17:50 12,9 C 12,2 C 10,6 C 81 % 1019,3 hPa 0,0 l/m 0 min 0 min 38 W/m 6,4 km/h (2 Bft) 97,87 %
15.10.2021 17:52 12,9 C 12,2 C 10,6 C 81 % 1019,3 hPa 0,0 l/m 0 min 0 min 35 W/m 3,2 km/h (1 Bft) 97,83 %
15.10.2021 17:54 12,8 C 12,2 C 10,0 C 81 % 1019,4 hPa 0,0 l/m 0 min 0 min 33 W/m 3,2 km/h (1 Bft) 97,87 %
15.10.2021 17:56 12,8 C 12,2 C 10,0 C 81 % 1019,4 hPa 0,0 l/m 0 min 0 min 33 W/m 3,2 km/h (1 Bft) 97,87 %
15.10.2021 17:58 12,8 C 12,2 C 10,0 C 81 % 1019,3 hPa 0,0 l/m 0 min 0 min 35 W/m 0,0 km/h (0 Bft) 97,87 %
15.10.2021 18:00 12,8 C 11,7 C 10,0 C 81 % 1019,3 hPa 0,0 l/m 0 min 0 min 35 W/m 6,4 km/h (2 Bft) 97,87 %
15.10.2021 18:02 12,8 C 11,7 C 10,0 C 81 % 1019,4 hPa 0,0 l/m 0 min 0 min 33 W/m 0,0 km/h (0 Bft) 95,74 %
15.10.2021 18:04 12,8 C 11,7 C 10,0 C 81 % 1019,4 hPa 0,0 l/m 0 min 0 min 33 W/m 3,2 km/h (1 Bft) 97,87 %
15.10.2021 18:06 12,8 C 11,7 C 10,0 C 82 % 1019,5 hPa 0,0 l/m 0 min 0 min 34 W/m 3,2 km/h (1 Bft) 97,87 %
15.10.2021 18:08 12,7 C 11,7 C 10,0 C 81 % 1019,5 hPa 0,0 l/m 0 min 0 min 32 W/m 3,2 km/h (1 Bft) 54,35 %
15.10.2021 18:10 12,7 C 12,2 C 10,0 C 81 % 1019,5 hPa 0,0 l/m 0 min 0 min 32 W/m 3,2 km/h (1 Bft) 95,74 %
15.10.2021 18:12 12,6 C 12,2 C 10,0 C 81 % 1019,5 hPa 0,0 l/m 2 min 0 min 32 W/m 0,0 km/h (0 Bft) 97,87 %
15.10.2021 18:14 12,6 C 12,2 C 10,0 C 82 % 1019,5 hPa 0,0 l/m 2 min 0 min 30 W/m 3,2 km/h (1 Bft) 95,74 %
15.10.2021 18:16 12,6 C 12,2 C 10,0 C 82 % 1019,5 hPa 0,0 l/m 2 min 0 min 30 W/m 6,4 km/h (2 Bft) 97,83 %
15.10.2021 18:18 12,6 C 12,2 C 10,6 C 81 % 1019,5 hPa 0,0 l/m 2 min 0 min 28 W/m 6,4 km/h (2 Bft) 97,87 %
15.10.2021 18:20 12,6 C 12,2 C 10,6 C 81 % 1019,6 hPa 0,0 l/m 2 min 0 min 27 W/m 3,2 km/h (1 Bft) 97,87 %
15.10.2021 18:22 12,6 C 12,2 C 10,6 C 81 % 1019,6 hPa 0,0 l/m 2 min 0 min 26 W/m 9,7 km/h (2 Bft) 97,87 %
15.10.2021 18:24 12,6 C 12,2 C 10,6 C 81 % 1019,6 hPa 0,0 l/m 2 min 0 min 25 W/m 3,2 km/h (1 Bft) 100,00 %
15.10.2021 18:26 12,6 C 12,2 C 10,6 C 81 % 1019,6 hPa 0,0 l/m 2 min 0 min 25 W/m 6,4 km/h (2 Bft) 100,00 %
15.10.2021 18:28 12,6 C 12,2 C 10,6 C 81 % 1019,7 hPa 0,0 l/m 2 min 0 min 23 W/m 3,2 km/h (1 Bft) 100,00 %
15.10.2021 18:30 12,5 C 12,2 C 10,6 C 81 % 1019,7 hPa 0,0 l/m 0 min 0 min 20 W/m 6,4 km/h (2 Bft) 100,00 %
15.10.2021 18:32 12,5 C 12,2 C 10,6 C 80 % 1019,7 hPa 0,0 l/m 0 min 0 min 17 W/m 9,7 km/h (2 Bft) 97,87 %
15.10.2021 18:34 12,5 C 12,2 C 10,6 C 80 % 1019,7 hPa 0,0 l/m 0 min 0 min 13 W/m 6,4 km/h (2 Bft) 95,74 %
15.10.2021 18:36 12,5 C 11,7 C 10,6 C 80 % 1019,8 hPa 0,0 l/m 0 min 0 min 11 W/m 12,9 km/h (3 Bft) 97,87 %
15.10.2021 18:38 12,5 C 11,7 C 10,6 C 79 % 1019,8 hPa 0,0 l/m 0 min 0 min 7 W/m 9,7 km/h (2 Bft) 97,87 %
15.10.2021 18:40 12,5 C 11,7 C 10,6 C 79 % 1019,9 hPa 0,0 l/m 0 min 0 min 5 W/m 6,4 km/h (2 Bft) 95,74 %
15.10.2021 18:42 12,4 C 11,7 C 10,0 C 79 % 1019,9 hPa 0,0 l/m 0 min 0 min 4 W/m 6,4 km/h (2 Bft) 97,83 %
15.10.2021 18:44 12,4 C 11,7 C 10,0 C 79 % 1019,9 hPa 0,0 l/m 0 min 0 min 0 W/m 6,4 km/h (2 Bft) 100,00 %
15.10.2021 18:46 12,4 C 11,7 C 10,0 C 79 % 1019,9 hPa 0,0 l/m 0 min 0 min 0 W/m 6,4 km/h (2 Bft) 97,87 %
15.10.2021 18:48 12,4 C 11,7 C 10,0 C 79 % 1020,0 hPa 0,0 l/m 0 min 0 min 0 W/m 3,2 km/h (1 Bft) 97,87 %
15.10.2021 18:50 12,3 C 11,7 C 10,0 C 79 % 1020,0 hPa 0,0 l/m 0 min 0 min 0 W/m 6,4 km/h (2 Bft) 93,62 %
15.10.2021 18:52 12,3 C 11,1 C 10,0 C 79 % 1020,0 hPa 0,0 l/m 0 min 0 min 0 W/m 6,4 km/h (2 Bft) 97,87 %
15.10.2021 18:54 12,3 C 11,1 C 9,5 C 79 % 1020,1 hPa 0,0 l/m 0 min 0 min 0 W/m 6,4 km/h (2 Bft) 95,65 %
15.10.2021 18:56 12,2 C 11,1 C 9,5 C 79 % 1020,2 hPa 0,0 l/m 0 min 0 min 0 W/m 6,4 km/h (2 Bft) 95,74 %
15.10.2021 18:58 12,2 C 11,1 C 9,5 C 79 % 1020,2 hPa 0,0 l/m 0 min 0 min 0 W/m 6,4 km/h (2 Bft) 95,74 %
15.10.2021 19:00 12,1 C 10,6 C 9,5 C 79 % 1020,3 hPa 0,0 l/m 0 min 0 min 0 W/m 3,2 km/h (1 Bft) 93,62 %
15.10.2021 19:02 12,1 C 10,6 C 9,5 C 80 % 1020,3 hPa 0,0 l/m 0 min 0 min 0 W/m 0,0 km/h (0 Bft) 95,74 %
15.10.2021 19:04 12,0 C 10,6 C 8,9 C 80 % 1020,3 hPa 0,0 l/m 0 min 0 min 0 W/m 0,0 km/h (0 Bft) 95,74 %
15.10.2021 19:06 12,0 C 10,6 C 8,9 C 80 % 1020,4 hPa 0,0 l/m 0 min 0 min 0 W/m 0,0 km/h (0 Bft) 95,74 %
15.10.2021 19:08 12,0 C 10,0 C 8,9 C 80 % 1020,4 hPa 0,0 l/m 0 min 0 min 0 W/m 0,0 km/h (0 Bft) 93,62 %
15.10.2021 19:10 12,0 C 10,0 C 8,9 C 80 % 1020,5 hPa 0,0 l/m 0 min 0 min 0 W/m 0,0 km/h (0 Bft) 95,74 %
15.10.2021 19:12 11,9 C 10,0 C 8,4 C 80 % 1020,5 hPa 0,0 l/m 0 min 0 min 0 W/m 0,0 km/h (0 Bft) 95,74 %
15.10.2021 19:14 11,9 C 10,0 C 8,4 C 81 % 1020,5 hPa 0,0 l/m 0 min 0 min 0 W/m 0,0 km/h (0 Bft) 93,48 %
15.10.2021 19:16 11,9 C 10,0 C 8,4 C 81 % 1020,6 hPa 0,0 l/m 0 min 0 min 0 W/m 0,0 km/h (0 Bft) 95,74 %
15.10.2021 19:18 11,8 C 9,4 C 8,4 C 81 % 1020,6 hPa 0,0 l/m 0 min 0 min 0 W/m 0,0 km/h (0 Bft) 97,87 %
15.10.2021 19:20 11,8 C 9,4 C 8,4 C 81 % 1020,6 hPa 0,0 l/m 0 min 0 min 0 W/m 0,0 km/h (0 Bft) 97,87 %
15.10.2021 19:22 11,7 C 9,4 C 8,4 C 81 % 1020,6 hPa 0,0 l/m 0 min 0 min 0 W/m 0,0 km/h (0 Bft) 95,74 %
15.10.2021 19:24 11,7 C 9,4 C 8,4 C 81 % 1020,7 hPa 0,0 l/m 0 min 0 min 0 W/m 0,0 km/h (0 Bft) 95,65 %
15.10.2021 19:26 11,6 C 9,4 C 8,4 C 81 % 1020,7 hPa 0,0 l/m 0 min 0 min 0 W/m 0,0 km/h (0 Bft) 97,87 %
15.10.2021 19:28 11,5 C 9,4 C 7,8 C 82 % 1020,8 hPa 0,0 l/m 0 min 0 min 0 W/m 0,0 km/h (0 Bft) 97,87 %
15.10.2021 19:30 11,5 C 8,9 C 7,8 C 82 % 1020,7 hPa 0,0 l/m 0 min 0 min 0 W/m 0,0 km/h (0 Bft) 97,87 %
15.10.2021 19:32 11,4 C 8,9 C 7,8 C 82 % 1020,8 hPa 0,0 l/m 0 min 0 min 0 W/m 0,0 km/h (0 Bft) 97,87 %
15.10.2021 19:34 11,3 C 8,9 C 7,8 C 82 % 1020,8 hPa 0,0 l/m 0 min 0 min 0 W/m 3,2 km/h (1 Bft) 100,00 %
15.10.2021 19:36 11,3 C 8,9 C 7,8 C 83 % 1020,8 hPa 0,0 l/m 0 min 0 min 0 W/m 0,0 km/h (0 Bft) 97,83 %
15.10.2021 19:38 11,2 C 8,9 C 7,8 C 83 % 1020,9 hPa 0,0 l/m 0 min 0 min 0 W/m 0,0 km/h (0 Bft) 100,00 %
15.10.2021 19:40 11,1 C 8,9 C 7,8 C 83 % 1020,8 hPa 0,0 l/m 0 min 0 min 0 W/m 0,0 km/h (0 Bft) 100,00 %
15.10.2021 19:42 11,1 C 8,9 C 7,8 C 83 % 1020,9 hPa 0,0 l/m 0 min 0 min 0 W/m 0,0 km/h (0 Bft) 97,87 %
15.10.2021 19:44 11,0 C 8,9 C 7,8 C 83 % 1021,0 hPa 0,0 l/m 0 min 0 min 0 W/m 0,0 km/h (0 Bft) 97,87 %
15.10.2021 19:46 10,9 C 8,3 C 7,8 C 83 % 1020,9 hPa 0,0 l/m 0 min 0 min 0 W/m 0,0 km/h (0 Bft) 97,87 %
15.10.2021 19:48 10,9 C 8,3 C 7,3 C 84 % 1021,0 hPa 0,0 l/m 0 min 0 min 0 W/m 0,0 km/h (0 Bft) 97,83 %
15.10.2021 19:50 10,8 C 8,3 C 7,3 C 84 % 1021,0 hPa 0,0 l/m 0 min 0 min 0 W/m 0,0 km/h (0 Bft) 97,87 %
15.10.2021 19:52 10,8 C 8,3 C 7,3 C 84 % 1021,0 hPa 0,0 l/m 0 min 0 min 0 W/m 0,0 km/h (0 Bft) 97,87 %
15.10.2021 19:54 10,6 C 8,3 C 7,3 C 84 % 1021,0 hPa 0,0 l/m 0 min 0 min 0 W/m 3,2 km/h (1 Bft) 97,87 %
15.10.2021 19:56 10,6 C 8,3 C 7,3 C 84 % 1021,0 hPa 0,0 l/m 0 min 0 min 0 W/m 0,0 km/h (0 Bft) 97,87 %
15.10.2021 19:58 10,5 C 8,3 C 7,3 C 84 % 1021,1 hPa 0,0 l/m 0 min 0 min 0 W/m 0,0 km/h (0 Bft) 97,87 %
15.10.2021 20:00 10,5 C 8,3 C 7,3 C 84 % 1021,1 hPa 0,0 l/m 0 min 0 min 0 W/m 0,0 km/h (0 Bft) 97,83 %
15.10.2021 20:02 10,4 C 8,3 C 7,3 C 85 % 1021,1 hPa 0,0 l/m 0 min 0 min 0 W/m 0,0 km/h (0 Bft) 97,87 %
15.10.2021 20:04 10,3 C 8,3 C 7,3 C 85 % 1021,2 hPa 0,0 l/m 0 min 0 min 0 W/m 3,2 km/h (1 Bft) 97,87 %
15.10.2021 20:06 10,3 C 8,3 C 7,3 C 85 % 1021,2 hPa 0,0 l/m 0 min 0 min 0 W/m 0,0 km/h (0 Bft) 97,87 %
15.10.2021 20:08 10,2 C 8,3 C 7,3 C 85 % 1021,2 hPa 0,0 l/m 0 min 0 min 0 W/m 0,0 km/h (0 Bft) 97,87 %
15.10.2021 20:10 10,1 C 8,3 C 7,3 C 85 % 1021,1 hPa 0,0 l/m 0 min 0 min 0 W/m 0,0 km/h (0 Bft) 50,00 %
15.10.2021 20:12 10,1 C 8,3 C 7,3 C 86 % 1021,2 hPa 0,0 l/m 0 min 0 min 0 W/m 0,0 km/h (0 Bft) 97,83 %
15.10.2021 20:14 10,0 C 8,3 C 7,3 C 86 % 1021,1 hPa 0,0 l/m 0 min 0 min 0 W/m 0,0 km/h (0 Bft) 100,00 %
15.10.2021 20:16 10,0 C 7,8 C 7,3 C 86 % 1021,2 hPa 0,0 l/m 0 min 0 min 0 W/m 0,0 km/h (0 Bft) 100,00 %
15.10.2021 20:18 9,9 C 7,8 C 7,3 C 86 % 1021,2 hPa 0,0 l/m 0 min 0 min 0 W/m 0,0 km/h (0 Bft) 97,87 %
15.10.2021 20:20 9,9 C 7,8 C 7,3 C 86 % 1021,3 hPa 0,0 l/m 0 min 0 min 0 W/m 0,0 km/h (0 Bft) 100,00 %
15.10.2021 20:22 9,8 C 7,8 C 7,3 C 86 % 1021,3 hPa 0,0 l/m 0 min 0 min 0 W/m 0,0 km/h (0 Bft) 97,83 %
15.10.2021 20:24 9,8 C 7,8 C 7,3 C 86 % 1021,2 hPa 0,0 l/m 0 min 0 min 0 W/m 0,0 km/h (0 Bft) 100,00 %
15.10.2021 20:26 9,7 C 7,8 C 7,3 C 86 % 1021,2 hPa 0,0 l/m 0 min 0 min 0 W/m 0,0 km/h (0 Bft) 97,87 %
15.10.2021 20:28 9,6 C 7,8 C 7,3 C 86 % 1021,3 hPa 0,0 l/m 0 min 0 min 0 W/m 0,0 km/h (0 Bft) 100,00 %
15.10.2021 20:30 9,6 C 7,8 C 6,7 C 86 % 1021,3 hPa 0,0 l/m 0 min 0 min 0 W/m 0,0 km/h (0 Bft) 100,00 %
15.10.2021 20:32 9,5 C 7,8 C 6,7 C 87 % 1021,3 hPa 0,0 l/m 0 min 0 min 0 W/m 0,0 km/h (0 Bft) 97,87 %
15.10.2021 20:34 9,5 C 7,8 C 6,7 C 87 % 1021,3 hPa 0,0 l/m 0 min 0 min 0 W/m 0,0 km/h (0 Bft) 100,00 %
15.10.2021 20:36 9,5 C 7,8 C 6,7 C 87 % 1021,3 hPa 0,0 l/m 0 min 0 min 0 W/m 0,0 km/h (0 Bft) 97,87 %
15.10.2021 20:38 9,4 C 7,8 C 6,7 C 87 % 1021,2 hPa 0,0 l/m 0 min 0 min 0 W/m 0,0 km/h (0 Bft) 100,00 %
15.10.2021 20:40 9,4 C 7,8 C 6,7 C 87 % 1021,2 hPa 0,0 l/m 0 min 0 min 0 W/m 0,0 km/h (0 Bft) 100,00 %
15.10.2021 20:42 9,3 C 7,8 C 6,7 C 87 % 1021,2 hPa 0,0 l/m 0 min 0 min 0 W/m 0,0 km/h (0 Bft) 100,00 %
15.10.2021 20:44 9,3 C 7,8 C 6,7 C 87 % 1021,2 hPa 0,0 l/m 0 min 0 min 0 W/m 0,0 km/h (0 Bft) 100,00 %
15.10.2021 20:46 9,2 C 7,2 C 6,7 C 87 % 1021,3 hPa 0,0 l/m 0 min 0 min 0 W/m 0,0 km/h (0 Bft) 100,00 %
15.10.2021 20:48 9,1 C 7,2 C 6,7 C 88 % 1021,3 hPa 0,0 l/m 0 min 0 min 0 W/m 0,0 km/h (0 Bft) 97,87 %
15.10.2021 20:50 9,1 C 7,2 C 6,7 C 87 % 1021,3 hPa 0,0 l/m 0 min 0 min 0 W/m 0,0 km/h (0 Bft) 100,00 %
15.10.2021 20:52 9,0 C 7,2 C 6,7 C 88 % 1021,3 hPa 0,0 l/m 0 min 0 min 0 W/m 0,0 km/h (0 Bft) 100,00 %
15.10.2021 20:54 9,0 C 7,2 C 6,7 C 88 % 1021,3 hPa 0,0 l/m 0 min 0 min 0 W/m 0,0 km/h (0 Bft) 97,87 %
15.10.2021 20:56 9,0 C 7,2 C 6,7 C 88 % 1021,3 hPa 0,0 l/m 0 min 0 min 0 W/m 0,0 km/h (0 Bft) 100,00 %
15.10.2021 20:58 8,9 C 7,2 C 6,7 C 88 % 1021,3 hPa 0,0 l/m 0 min 0 min 0 W/m 0,0 km/h (0 Bft) 97,83 %
15.10.2021 21:00 8,9 C 7,2 C 6,7 C 88 % 1021,4 hPa 0,0 l/m 0 min 0 min 0 W/m 0,0 km/h (0 Bft) 97,87 %
15.10.2021 21:02 8,8 C 7,2 C 6,7 C 88 % 1021,4 hPa 0,0 l/m 0 min 0 min 0 W/m 0,0 km/h (0 Bft) 95,74 %
15.10.2021 21:04 8,8 C 7,2 C 6,7 C 89 % 1021,4 hPa 0,0 l/m 0 min 0 min 0 W/m 0,0 km/h (0 Bft) 97,87 %
15.10.2021 21:06 8,8 C 7,2 C 6,7 C 89 % 1021,4 hPa 0,0 l/m 0 min 0 min 0 W/m 0,0 km/h (0 Bft) 97,87 %
15.10.2021 21:08 8,7 C 7,2 C 6,7 C 89 % 1021,4 hPa 0,0 l/m 0 min 0 min 0 W/m 0,0 km/h (0 Bft) 95,65 %
15.10.2021 21:10 8,7 C 7,2 C 6,7 C 89 % 1021,4 hPa 0,0 l/m 0 min 0 min 0 W/m 0,0 km/h (0 Bft) 97,87 %
15.10.2021 21:12 8,6 C 7,2 C 6,7 C 89 % 1021,4 hPa 0,0 l/m 0 min 0 min 0 W/m 0,0 km/h (0 Bft) 95,74 %
15.10.2021 21:14 8,6 C 7,2 C 6,7 C 89 % 1021,4 hPa 0,0 l/m 0 min 0 min 0 W/m 0,0 km/h (0 Bft) 97,87 %
15.10.2021 21:16 8,6 C 7,2 C 6,7 C 89 % 1021,4 hPa 0,0 l/m 0 min 0 min 0 W/m 0,0 km/h (0 Bft) 97,87 %
15.10.2021 21:18 8,5 C 7,2 C 6,7 C 89 % 1021,4 hPa 0,0 l/m 0 min 0 min 0 W/m 0,0 km/h (0 Bft) 95,74 %
15.10.2021 21:20 8,5 C 7,2 C 6,7 C 89 % 1021,4 hPa 0,0 l/m 0 min 0 min 0 W/m 0,0 km/h (0 Bft) 95,65 %
15.10.2021 21:22 8,5 C 7,2 C 6,7 C 90 % 1021,4 hPa 0,0 l/m 0 min 0 min 0 W/m 0,0 km/h (0 Bft) 95,74 %
15.10.2021 21:24 8,4 C 6,7 C 6,1 C 89 % 1021,4 hPa 0,0 l/m 0 min 0 min 0 W/m 0,0 km/h (0 Bft) 95,74 %
15.10.2021 21:26 8,4 C 6,7 C 6,1 C 89 % 1021,4 hPa 0,0 l/m 0 min 0 min 0 W/m 0,0 km/h (0 Bft) 97,87 %
15.10.2021 21:28 8,3 C 6,7 C 6,1 C 90 % 1021,4 hPa 0,0 l/m 0 min 0 min 0 W/m 0,0 km/h (0 Bft) 95,74 %
15.10.2021 21:30 8,3 C 6,7 C 6,1 C 90 % 1021,4 hPa 0,0 l/m 0 min 0 min 0 W/m 0,0 km/h (0 Bft) 65,96 %
15.10.2021 21:32 8,3 C 6,7 C 6,1 C 90 % 1021,4 hPa 0,0 l/m 0 min 0 min 0 W/m 0,0 km/h (0 Bft) 78,38 %
15.10.2021 21:34 8,2 C 6,7 C 6,1 C 90 % 1021,5 hPa 0,0 l/m 0 min 0 min 0 W/m 0,0 km/h (0 Bft) 97,87 %
15.10.2021 21:36 8,1 C 6,7 C 6,1 C 90 % 1021,5 hPa 0,0 l/m 0 min 0 min 0 W/m 0,0 km/h (0 Bft) 95,74 %
15.10.2021 21:38 8,1 C 6,7 C 6,1 C 90 % 1021,5 hPa 0,0 l/m 0 min 0 min 0 W/m 0,0 km/h (0 Bft) 100,00 %
15.10.2021 21:40 8,0 C 6,7 C 6,1 C 90 % 1021,5 hPa 0,0 l/m 0 min 0 min 0 W/m 0,0 km/h (0 Bft) 97,87 %
15.10.2021 21:42 8,0 C 6,7 C 6,1 C 90 % 1021,5 hPa 0,0 l/m 0 min 0 min 0 W/m 0,0 km/h (0 Bft) 97,87 %
15.10.2021 21:44 8,0 C 6,7 C 6,1 C 90 % 1021,5 hPa 0,0 l/m 0 min 0 min 0 W/m 0,0 km/h (0 Bft) 95,65 %
15.10.2021 21:46 7,9 C 6,7 C 6,1 C 90 % 1021,5 hPa 0,0 l/m 0 min 0 min 0 W/m 0,0 km/h (0 Bft) 97,87 %
15.10.2021 21:48 7,9 C 6,7 C 6,1 C 90 % 1021,5 hPa 0,0 l/m 0 min 0 min 0 W/m 0,0 km/h (0 Bft) 100,00 %
15.10.2021 21:50 7,9 C 6,7 C 6,1 C 90 % 1021,6 hPa 0,0 l/m 0 min 0 min 0 W/m 0,0 km/h (0 Bft) 100,00 %
15.10.2021 21:52 7,8 C 6,1 C 6,1 C 90 % 1021,6 hPa 0,0 l/m 0 min 0 min 0 W/m 0,0 km/h (0 Bft) 100,00 %
15.10.2021 21:54 7,8 C 6,1 C 6,1 C 90 % 1021,6 hPa 0,0 l/m 0 min 0 min 0 W/m 0,0 km/h (0 Bft) 100,00 %
15.10.2021 21:56 7,8 C 6,1 C 6,1 C 90 % 1021,6 hPa 0,0 l/m 0 min 0 min 0 W/m 0,0 km/h (0 Bft) 100,00 %
15.10.2021 21:58 7,7 C 6,1 C 6,1 C 90 % 1021,6 hPa 0,0 l/m 0 min 0 min 0 W/m 0,0 km/h (0 Bft) 100,00 %
15.10.2021 22:00 7,6 C 6,1 C 6,1 C 91 % 1021,7 hPa 0,0 l/m 0 min 0 min 0 W/m 0,0 km/h (0 Bft) 100,00 %
15.10.2021 22:02 7,6 C 6,1 C 5,6 C 91 % 1021,7 hPa 0,0 l/m 0 min 0 min 0 W/m 0,0 km/h (0 Bft) 97,87 %
15.10.2021 22:04 7,6 C 6,1 C 5,6 C 91 % 1021,7 hPa 0,0 l/m 0 min 0 min 0 W/m 0,0 km/h (0 Bft) 100,00 %
15.10.2021 22:06 7,5 C 6,1 C 5,6 C 91 % 1021,7 hPa 0,0 l/m 0 min 0 min 0 W/m 0,0 km/h (0 Bft) 97,83 %
15.10.2021 22:08 7,5 C 6,1 C 5,6 C 91 % 1021,7 hPa 0,0 l/m 0 min 0 min 0 W/m 0,0 km/h (0 Bft) 97,87 %
15.10.2021 22:10 7,5 C 6,1 C 5,6 C 91 % 1021,7 hPa 0,0 l/m 0 min 0 min 0 W/m 0,0 km/h (0 Bft) 97,87 %
15.10.2021 22:12 7,4 C 6,1 C 5,6 C 91 % 1021,7 hPa 0,0 l/m 0 min 0 min 0 W/m 0,0 km/h (0 Bft) 97,87 %
15.10.2021 22:14 7,4 C 6,1 C 5,6 C 91 % 1021,7 hPa 0,0 l/m 0 min 0 min 0 W/m 0,0 km/h (0 Bft) 95,74 %
15.10.2021 22:16 7,4 C 6,1 C 5,6 C 91 % 1021,8 hPa 0,0 l/m 0 min 0 min 0 W/m 0,0 km/h (0 Bft) 97,87 %
15.10.2021 22:18 7,3 C 6,1 C 5,6 C 91 % 1021,8 hPa 0,0 l/m 0 min 0 min 0 W/m 0,0 km/h (0 Bft) 95,65 %
15.10.2021 22:20 7,3 C 6,1 C 5,6 C 91 % 1021,8 hPa 0,0 l/m 0 min 0 min 0 W/m 0,0 km/h (0 Bft) 97,87 %
15.10.2021 22:22 7,3 C 5,6 C 5,6 C 91 % 1021,9 hPa 0,0 l/m 0 min 0 min 0 W/m 0,0 km/h (0 Bft) 97,87 %
15.10.2021 22:24 7,2 C 5,6 C 5,6 C 91 % 1021,8 hPa 0,0 l/m 0 min 0 min 0 W/m 0,0 km/h (0 Bft) 97,87 %
15.10.2021 22:26 7,2 C 5,6 C 5,6 C 91 % 1021,8 hPa 0,0 l/m 0 min 0 min 0 W/m 0,0 km/h (0 Bft) 97,87 %
15.10.2021 22:28 7,1 C 5,6 C 5,6 C 91 % 1021,9 hPa 0,0 l/m 0 min 0 min 0 W/m 0,0 km/h (0 Bft) 97,87 %
15.10.2021 22:30 7,1 C 5,6 C 5,6 C 91 % 1021,9 hPa 0,0 l/m 0 min 0 min 0 W/m 0,0 km/h (0 Bft) 95,65 %
15.10.2021 22:32 7,1 C 5,6 C 5,6 C 91 % 1021,9 hPa 0,0 l/m 0 min 0 min 0 W/m 0,0 km/h (0 Bft) 95,74 %
15.10.2021 22:34 7,1 C 5,6 C 5,6 C 91 % 1021,9 hPa 0,0 l/m 0 min 0 min 0 W/m 0,0 km/h (0 Bft) 97,87 %
15.10.2021 22:36 7,0 C 5,6 C 5,6 C 91 % 1021,8 hPa 0,0 l/m 0 min 0 min 0 W/m 0,0 km/h (0 Bft) 93,62 %
15.10.2021 22:38 7,0 C 5,6 C 5,6 C 91 % 1021,8 hPa 0,0 l/m 0 min 0 min 0 W/m 0,0 km/h (0 Bft) 95,74 %
15.10.2021 22:40 7,0 C 5,6 C 5,6 C 92 % 1021,8 hPa 0,0 l/m 0 min 0 min 0 W/m 0,0 km/h (0 Bft) 97,87 %
15.10.2021 22:42 6,9 C 5,6 C 5,6 C 92 % 1021,8 hPa 0,0 l/m 0 min 0 min 0 W/m 0,0 km/h (0 Bft) 95,65 %
15.10.2021 22:44 6,9 C 5,6 C 5,6 C 91 % 1021,8 hPa 0,0 l/m 0 min 0 min 0 W/m 0,0 km/h (0 Bft) 97,87 %
15.10.2021 22:46 6,9 C 5,6 C 5,6 C 92 % 1021,9 hPa 0,0 l/m 0 min 0 min 0 W/m 0,0 km/h (0 Bft) 95,74 %
15.10.2021 22:48 6,9 C 5,6 C 5,6 C 92 % 1021,9 hPa 0,0 l/m 0 min 0 min 0 W/m 0,0 km/h (0 Bft) 95,74 %
15.10.2021 22:52 6,8 C 5,6 C 5,6 C 92 % 1021,9 hPa 0,0 l/m 0 min 0 min 0 W/m 0,0 km/h (0 Bft) 94,19 %
15.10.2021 22:54 6,8 C 5,6 C 5,0 C 92 % 1021,9 hPa 0,0 l/m 0 min 0 min 0 W/m 0,0 km/h (0 Bft) 93,62 %
15.10.2021 22:56 6,8 C 5,6 C 5,0 C 92 % 1021,9 hPa 0,0 l/m 0 min 0 min 0 W/m 0,0 km/h (0 Bft) 91,30 %
15.10.2021 22:58 6,7 C 5,6 C 5,0 C 92 % 1022,0 hPa 0,0 l/m 0 min 0 min 0 W/m 0,0 km/h (0 Bft) 91,49 %
15.10.2021 23:00 6,7 C 5,6 C 5,0 C 92 % 1022,0 hPa 0,0 l/m 0 min 0 min 0 W/m 0,0 km/h (0 Bft) 91,49 %
15.10.2021 23:02 6,6 C 5,6 C 5,0 C 92 % 1022,0 hPa 0,0 l/m 0 min 0 min 0 W/m 0,0 km/h (0 Bft) 93,62 %
15.10.2021 23:04 6,6 C 5,6 C 5,0 C 92 % 1022,0 hPa 0,0 l/m 0 min 0 min 0 W/m 0,0 km/h (0 Bft) 93,62 %
15.10.2021 23:06 6,6 C 5,6 C 5,0 C 92 % 1021,9 hPa 0,0 l/m 0 min 0 min 0 W/m 0,0 km/h (0 Bft) 93,10 %
15.10.2021 23:08 6,6 C 5,6 C 5,0 C 92 % 1022,0 hPa 0,0 l/m 0 min 0 min 0 W/m 0,0 km/h (0 Bft) 91,43 %
15.10.2021 23:10 6,5 C 5,6 C 5,0 C 92 % 1022,0 hPa 0,0 l/m 0 min 0 min 0 W/m 0,0 km/h (0 Bft) 93,62 %
15.10.2021 23:12 6,5 C 5,6 C 5,0 C 92 % 1022,0 hPa 0,0 l/m 0 min 0 min 0 W/m 0,0 km/h (0 Bft) 93,62 %
15.10.2021 23:14 6,5 C 5,6 C 5,0 C 92 % 1022,0 hPa 0,0 l/m 0 min 0 min 0 W/m 0,0 km/h (0 Bft) 89,36 %
15.10.2021 23:16 6,5 C 5,6 C 5,0 C 92 % 1022,0 hPa 0,0 l/m 0 min 0 min 0 W/m 0,0 km/h (0 Bft) 93,62 %
15.10.2021 23:18 6,5 C 5,6 C 5,0 C 92 % 1022,0 hPa 0,0 l/m 0 min 0 min 0 W/m 0,0 km/h (0 Bft) 95,74 %
15.10.2021 23:20 6,4 C 5,6 C 5,0 C 92 % 1022,0 hPa 0,0 l/m 0 min 0 min 0 W/m 0,0 km/h (0 Bft) 97,83 %
15.10.2021 23:22 6,4 C 5,6 C 5,0 C 92 % 1022,0 hPa 0,0 l/m 0 min 0 min 0 W/m 0,0 km/h (0 Bft) 97,87 %
15.10.2021 23:24 6,4 C 5,0 C 5,0 C 92 % 1022,0 hPa 0,0 l/m 0 min 0 min 0 W/m 0,0 km/h (0 Bft) 97,87 %
15.10.2021 23:26 6,4 C 5,0 C 5,0 C 92 % 1022,1 hPa 0,0 l/m 0 min 0 min 0 W/m 0,0 km/h (0 Bft) 97,87 %
15.10.2021 23:28 6,4 C 5,0 C 5,0 C 92 % 1022,1 hPa 0,0 l/m 0 min 0 min 0 W/m 0,0 km/h (0 Bft) 100,00 %
15.10.2021 23:30 6,4 C 5,0 C 5,0 C 92 % 1022,1 hPa 0,0 l/m 0 min 0 min 0 W/m 0,0 km/h (0 Bft) 97,87 %
15.10.2021 23:32 6,3 C 5,0 C 5,0 C 92 % 1022,0 hPa 0,0 l/m 0 min 0 min 0 W/m 0,0 km/h (0 Bft) 97,83 %
15.10.2021 23:34 6,3 C 5,0 C 5,0 C 93 % 1022,0 hPa 0,0 l/m 0 min 0 min 0 W/m 0,0 km/h (0 Bft) 97,87 %
15.10.2021 23:36 6,3 C 5,0 C 5,0 C 93 % 1022,0 hPa 0,0 l/m 0 min 0 min 0 W/m 0,0 km/h (0 Bft) 97,87 %
15.10.2021 23:38 6,3 C 5,0 C 5,0 C 93 % 1022,1 hPa 0,0 l/m 0 min 0 min 0 W/m 0,0 km/h (0 Bft) 100,00 %
15.10.2021 23:40 6,2 C 5,0 C 5,0 C 93 % 1022,1 hPa 0,0 l/m 0 min 0 min 0 W/m 0,0 km/h (0 Bft) 100,00 %
15.10.2021 23:42 6,2 C 5,0 C 5,0 C 93 % 1022,1 hPa 0,0 l/m 0 min 0 min 0 W/m 0,0 km/h (0 Bft) 97,83 %
15.10.2021 23:44 6,1 C 5,0 C 5,0 C 93 % 1022,2 hPa 0,0 l/m 0 min 0 min 0 W/m 0,0 km/h (0 Bft) 97,87 %
15.10.2021 23:46 6,1 C 5,0 C 5,0 C 93 % 1022,2 hPa 0,0 l/m 0 min 0 min 0 W/m 0,0 km/h (0 Bft) 100,00 %
15.10.2021 23:48 6,1 C 5,0 C 5,0 C 93 % 1022,2 hPa 0,0 l/m 0 min 0 min 0 W/m 0,0 km/h (0 Bft) 100,00 %
15.10.2021 23:50 6,1 C 5,0 C 5,0 C 93 % 1022,2 hPa 0,0 l/m 0 min 0 min 0 W/m 0,0 km/h (0 Bft) 100,00 %
15.10.2021 23:52 6,1 C 5,0 C 5,0 C 93 % 1022,2 hPa 0,0 l/m 0 min 0 min 0 W/m 0,0 km/h (0 Bft) 100,00 %
15.10.2021 23:54 6,0 C 5,0 C 5,0 C 93 % 1022,2 hPa 0,0 l/m 0 min 0 min 0 W/m 0,0 km/h (0 Bft) 100,00 %
15.10.2021 23:56 6,0 C 5,0 C 5,0 C 93 % 1022,2 hPa 0,0 l/m 0 min 0 min 0 W/m 0,0 km/h (0 Bft) 100,00 %
15.10.2021 23:58 6,0 C 5,0 C 5,0 C 93 % 1022,2 hPa 0,0 l/m 0 min 0 min 0 W/m 0,0 km/h (0 Bft) 100,00 %
_ Min-Zeit 23:54 23:24 22:54 15:16 07:30 - - - - 16:36 20:10
Minimum _ 6,0 C 5,0 C 5,0 C 75 % 1015,6 hPa - - - - 0,0 km/h (0 Bft) 50,00 %
_ Max-Zeit 14:52 14:40 14:44 11:44 23:44 10:58 13:06 10:54 14:46 01:10 00:14
Maximum _ 14,2 C 15,0 C 12,3 C 95 % 1022,2 hPa 0,2 l/m 2 min 2 min 640 W/m 29,0 km/h
S-SW (5 Bft)
100,00 %
Durchschnitt _ 11,3 C 10,7 C 9,3 C 85 % 1018,5 hPa #1,0 l/m #2:04 h #32 min. 124 W/m 10,9 km/h (2 Bft) 97,37 %
© 2021 W. Hausmann